CCA233 WBKK-UUDD

Flight info

Callsign CCA233
Flight time N/A
Altitude 38000
Route ADLEX1G ADLEX Y446 ASISU M768 AKMON/K0889F380 M768 TSH R468 SAPEN/N0478F380 R468 ELMOP P629 TIA W1 REP R345 ROT R470 VTN B218 SAGAG/K0893S1160 A581 BIDRU L888 XKC A460 RULAD/K0874F380 N126 EKSOZ L994 TITUR N985 ORTIM L158 APTAR T787 URAGO URAGO3L
Aircraft A333/H-SDE3GHIJ2J3J5M1RVWXY/LB2D1

Departure

Time 2026-05-03 23:43
Airport Kota Kinabalu International Airport (WBKK)

Arrival

Time N/A
Airport Domodedovo International Airport (UUDD)
Time Latitude Longitude Altitude Speed Heading
2026-05-03 23:19 5.92603 116.05030 51 ft 0 kts 113°
2026-05-03 23:31 5.92606 116.05023 51 ft 3 kts 112°
2026-05-03 23:32 5.92613 116.05008 50 ft 2 kts 113°
2026-05-03 23:32 5.92619 116.04993 50 ft 2 kts 112°
2026-05-03 23:32 5.92624 116.04980 49 ft 2 kts 112°
2026-05-03 23:32 5.92630 116.04966 49 ft 2 kts 115°
2026-05-03 23:33 5.92636 116.04952 49 ft 2 kts 118°
2026-05-03 23:33 5.92644 116.04939 48 ft 2 kts 122°
2026-05-03 23:33 5.92652 116.04927 48 ft 0 kts 124°
2026-05-03 23:33 5.92658 116.04919 48 ft 2 kts 116°
2026-05-03 23:34 5.92662 116.04904 48 ft 2 kts 96°
2026-05-03 23:34 5.92663 116.04890 48 ft 2 kts 82°
2026-05-03 23:34 5.92659 116.04874 47 ft 2 kts 66°
2026-05-03 23:34 5.92652 116.04861 47 ft 2 kts 50°
2026-05-03 23:35 5.92641 116.04851 47 ft 2 kts 34°
2026-05-03 23:35 5.92633 116.04846 47 ft 0 kts 24°
2026-05-03 23:35 5.92629 116.04845 47 ft 0 kts 23°
2026-05-03 23:37 5.92631 116.04845 47 ft 1 kts 23°
2026-05-03 23:37 5.92659 116.04858 47 ft 7 kts 24°
2026-05-03 23:37 5.92721 116.04886 47 ft 12 kts 25°
2026-05-03 23:38 5.92812 116.04929 49 ft 16 kts 27°
2026-05-03 23:38 5.92936 116.04979 49 ft 21 kts 21°
2026-05-03 23:38 5.93097 116.05048 48 ft 27 kts 25°
2026-05-03 23:38 5.93297 116.05128 45 ft 32 kts 21°
2026-05-03 23:39 5.93503 116.05217 46 ft 31 kts 25°
2026-05-03 23:39 5.93690 116.05302 53 ft 26 kts 25°
2026-05-03 23:39 5.93849 116.05369 57 ft 23 kts 20°
2026-05-03 23:39 5.93999 116.05425 56 ft 22 kts 21°
2026-05-03 23:40 5.94145 116.05486 52 ft 23 kts 25°
2026-05-03 23:40 5.94293 116.05556 50 ft 22 kts 22°
2026-05-03 23:40 5.94430 116.05611 54 ft 19 kts 22°
2026-05-03 23:40 5.94550 116.05661 55 ft 18 kts 22°
2026-05-03 23:41 5.94681 116.05716 55 ft 22 kts 22°
2026-05-03 23:41 5.94840 116.05776 54 ft 15 kts
2026-05-03 23:41 5.94909 116.05736 53 ft 12 kts 300°
2026-05-03 23:41 5.94934 116.05655 53 ft 11 kts 264°
2026-05-03 23:42 5.94896 116.05616 54 ft 7 kts 201°
2026-05-03 23:42 5.94856 116.05601 54 ft 5 kts 202°
2026-05-03 23:42 5.94845 116.05596 54 ft 0 kts 202°
2026-05-03 23:42 5.94827 116.05589 54 ft 15 kts 202°
2026-05-03 23:43 5.94533 116.05461 50 ft 82 kts 205°
2026-05-03 23:43 5.93787 116.05148 55 ft 147 kts 202°
2026-05-03 23:43 5.92705 116.04710 331 ft 172 kts 200°
2026-05-03 23:43 5.91651 116.04314 1119 ft 160 kts 199°
2026-05-03 23:44 5.90597 116.03944 1719 ft 163 kts 198°
2026-05-03 23:44 5.89516 116.03603 2281 ft 167 kts 198°
2026-05-03 23:44 5.88382 116.03213 2752 ft 177 kts 200°
2026-05-03 23:44 5.87220 116.02750 3251 ft 187 kts 204°
2026-05-03 23:45 5.86163 116.02022 3712 ft 186 kts 235°
2026-05-03 23:45 5.85741 116.00747 4089 ft 200 kts 266°
2026-05-03 23:45 5.85616 115.99293 4474 ft 222 kts 266°
2026-05-03 23:45 5.85503 115.97684 5022 ft 240 kts 267°
2026-05-03 23:46 5.85404 115.95964 5621 ft 258 kts 267°
2026-05-03 23:46 5.85304 115.94102 6259 ft 274 kts 267°
2026-05-03 23:46 5.85203 115.92188 7162 ft 278 kts 267°
2026-05-03 23:46 5.85102 115.90246 8026 ft 284 kts 267°
2026-05-03 23:47 5.85001 115.88286 8873 ft 287 kts 267°
2026-05-03 23:47 5.84896 115.86279 9615 ft 293 kts 267°
2026-05-03 23:47 5.84788 115.84199 10177 ft 302 kts 267°
2026-05-03 23:47 5.84677 115.82066 10290 ft 319 kts 267°
2026-05-03 23:48 5.84559 115.79813 10519 ft 331 kts 267°
2026-05-03 23:48 5.84438 115.77477 10715 ft 332 kts 267°
2026-05-03 23:48 5.84397 115.75156 10889 ft 332 kts 276°
2026-05-03 23:48 5.84767 115.72869 11090 ft 332 kts 280°
2026-05-03 23:49 5.85139 115.70593 11282 ft 334 kts 280°
2026-05-03 23:49 5.85516 115.68298 11475 ft 335 kts 280°
2026-05-03 23:49 5.85899 115.65967 11670 ft 337 kts 280°
2026-05-03 23:49 5.86278 115.63655 11860 ft 339 kts 279°
2026-05-03 23:50 5.86665 115.61297 12054 ft 340 kts 279°
2026-05-03 23:50 5.87050 115.58948 12246 ft 342 kts 279°
2026-05-03 23:50 5.87438 115.56580 12438 ft 344 kts 279°
2026-05-03 23:50 5.87828 115.54208 12632 ft 346 kts 279°
2026-05-03 23:51 5.88214 115.51852 12822 ft 346 kts 279°
2026-05-03 23:51 5.88609 115.49445 13017 ft 349 kts 279°
2026-05-03 23:51 5.89000 115.47052 13210 ft 350 kts 279°
2026-05-03 23:51 5.89399 115.44619 13404 ft 350 kts 279°
2026-05-03 23:52 5.89792 115.42213 13596 ft 350 kts 279°
2026-05-03 23:52 5.90184 115.39817 13787 ft 351 kts 279°
2026-05-03 23:52 5.90579 115.37402 13981 ft 351 kts 280°
2026-05-03 23:52 5.90976 115.34972 14173 ft 353 kts 280°
2026-05-03 23:53 5.91377 115.32516 14360 ft 355 kts 280°
2026-05-03 23:53 5.91774 115.30088 14544 ft 355 kts 280°
2026-05-03 23:53 5.92176 115.27630 14730 ft 356 kts 280°
2026-05-03 23:53 5.92548 115.25182 14910 ft 358 kts 275°
2026-05-03 23:54 5.92642 115.22660 15097 ft 360 kts 272°
2026-05-03 23:54 5.92720 115.20167 15287 ft 360 kts 272°
2026-05-03 23:54 5.92800 115.17656 15473 ft 362 kts 272°
2026-05-03 23:54 5.92882 115.15142 15661 ft 361 kts 272°
2026-05-03 23:55 5.92965 115.12601 15848 ft 362 kts 272°
2026-05-03 23:55 5.93046 115.10105 16031 ft 363 kts 272°
2026-05-03 23:55 5.93129 115.07530 16222 ft 365 kts 272°
2026-05-03 23:55 5.93212 115.04988 16408 ft 366 kts 272°
2026-05-03 23:56 5.93294 115.02440 16595 ft 367 kts 272°
2026-05-03 23:56 5.93377 114.99884 16778 ft 368 kts 272°
2026-05-03 23:56 5.93461 114.97317 16968 ft 369 kts 272°
2026-05-03 23:56 5.93544 114.94763 17155 ft 369 kts 272°
2026-05-03 23:57 5.93628 114.92162 17341 ft 371 kts 272°
2026-05-03 23:57 5.93711 114.89604 17526 ft 372 kts 272°
2026-05-03 23:57 5.93795 114.86987 17718 ft 372 kts 272°
2026-05-03 23:57 5.93878 114.84415 17898 ft 374 kts 272°
2026-05-03 23:58 5.93961 114.81807 18088 ft 374 kts 272°
2026-05-03 23:58 5.94045 114.79200 18276 ft 375 kts 272°
2026-05-03 23:58 5.94129 114.76569 18464 ft 377 kts 272°
2026-05-03 23:58 5.94214 114.73927 18652 ft 376 kts 272°
2026-05-03 23:59 5.94297 114.71321 18837 ft 378 kts 272°
2026-05-03 23:59 5.94381 114.68671 19028 ft 378 kts 272°
2026-05-03 23:59 5.94465 114.66029 19212 ft 379 kts 272°
2026-05-03 23:59 5.94549 114.63408 19399 ft 382 kts 272°
2026-05-04 00:00 5.94634 114.60746 19587 ft 382 kts 272°
2026-05-04 00:00 5.94719 114.58061 19778 ft 383 kts 272°
2026-05-04 00:00 5.94803 114.55405 19964 ft 383 kts 272°
2026-05-04 00:00 5.94888 114.52733 20150 ft 384 kts 272°
2026-05-04 00:01 5.94972 114.50056 20341 ft 384 kts 272°
2026-05-04 00:01 5.95057 114.47375 20526 ft 384 kts 272°
2026-05-04 00:01 5.95141 114.44688 20715 ft 387 kts 272°
2026-05-04 00:01 5.95226 114.41989 20906 ft 388 kts 272°
2026-05-04 00:02 5.95310 114.39291 21094 ft 389 kts 272°
2026-05-04 00:02 5.95395 114.36579 21282 ft 390 kts 272°
2026-05-04 00:02 5.95481 114.33839 21468 ft 390 kts 272°
2026-05-04 00:02 5.95565 114.31149 21649 ft 390 kts 272°
2026-05-04 00:03 5.95650 114.28426 21834 ft 390 kts 272°
2026-05-04 00:03 5.95735 114.25704 22014 ft 390 kts 272°
2026-05-04 00:03 5.95819 114.22990 22195 ft 391 kts 271°
2026-05-04 00:03 5.95904 114.20230 22387 ft 392 kts 271°
2026-05-04 00:04 5.95989 114.17499 22580 ft 394 kts 271°
2026-05-04 00:04 5.96073 114.14778 22770 ft 395 kts 271°
2026-05-04 00:04 5.96159 114.11994 22967 ft 395 kts 271°
2026-05-04 00:04 5.96244 114.09238 23157 ft 397 kts 271°
2026-05-04 00:05 5.96329 114.06477 23349 ft 399 kts 271°
2026-05-04 00:05 5.96414 114.03711 23541 ft 400 kts 271°
2026-05-04 00:05 5.96500 114.00908 23739 ft 400 kts 271°
2026-05-04 00:05 5.96586 113.98120 23933 ft 401 kts 271°
2026-05-04 00:06 5.96671 113.95342 24129 ft 403 kts 271°
2026-05-04 00:06 5.96758 113.92512 24329 ft 403 kts 271°
2026-05-04 00:06 5.96844 113.89689 24526 ft 405 kts 271°
2026-05-04 00:06 5.96931 113.86855 24724 ft 407 kts 271°
2026-05-04 00:07 5.97017 113.84015 24923 ft 408 kts 271°
2026-05-04 00:07 5.97103 113.81185 25120 ft 410 kts 271°
2026-05-04 00:07 5.97190 113.78329 25319 ft 411 kts 271°
2026-05-04 00:07 5.97277 113.75455 25518 ft 412 kts 272°
2026-05-04 00:08 5.97364 113.72585 25715 ft 412 kts 272°
2026-05-04 00:08 5.97451 113.69697 25912 ft 413 kts 272°
2026-05-04 00:08 5.97539 113.66812 26114 ft 414 kts 272°
2026-05-04 00:08 5.97625 113.63952 26311 ft 416 kts 272°
2026-05-04 00:09 5.97713 113.61023 26510 ft 416 kts 272°
2026-05-04 00:09 5.97799 113.58146 26708 ft 417 kts 272°
2026-05-04 00:09 5.97887 113.55228 26907 ft 419 kts 272°
2026-05-04 00:09 5.97975 113.52292 27110 ft 420 kts 272°
2026-05-04 00:10 5.98062 113.49359 27309 ft 421 kts 272°
2026-05-04 00:10 5.98149 113.46452 27508 ft 422 kts 272°
2026-05-04 00:10 5.98237 113.43477 27708 ft 423 kts 272°
2026-05-04 00:10 5.98324 113.40561 27906 ft 424 kts 272°
2026-05-04 00:11 5.98414 113.37590 28107 ft 425 kts 273°
2026-05-04 00:11 5.98930 113.34688 28283 ft 424 kts 290°
2026-05-04 00:11 6.00287 113.32082 28506 ft 423 kts 307°
2026-05-04 00:11 6.02039 113.29708 28746 ft 425 kts 307°
2026-05-04 00:12 6.03789 113.27292 28950 ft 428 kts 307°
2026-05-04 00:12 6.05543 113.24864 29149 ft 429 kts 307°
2026-05-04 00:12 6.07287 113.22450 29348 ft 430 kts 306°
2026-05-04 00:12 6.09037 113.20022 29544 ft 431 kts 306°
2026-05-04 00:13 6.10800 113.17578 29746 ft 432 kts 306°
2026-05-04 00:13 6.12583 113.15105 29948 ft 434 kts 306°
2026-05-04 00:13 6.14336 113.12675 30147 ft 436 kts 306°
2026-05-04 00:13 6.16131 113.10182 30349 ft 438 kts 306°
2026-05-04 00:14 6.17909 113.07717 30550 ft 440 kts 306°
2026-05-04 00:14 6.19712 113.05215 30753 ft 441 kts 306°
2026-05-04 00:14 6.21520 113.02705 30954 ft 442 kts 306°
2026-05-04 00:14 6.23312 113.00219 31156 ft 444 kts 306°
2026-05-04 00:15 6.25128 112.97697 31355 ft 445 kts 306°
2026-05-04 00:15 6.26945 112.95174 31558 ft 445 kts 306°
2026-05-04 00:15 6.28759 112.92657 31759 ft 446 kts 306°
2026-05-04 00:15 6.30586 112.90119 31961 ft 447 kts 306°
2026-05-04 00:16 6.32389 112.87616 32158 ft 447 kts 306°
2026-05-04 00:16 6.34223 112.85068 32360 ft 448 kts 306°
2026-05-04 00:16 6.36036 112.82549 32561 ft 448 kts 306°
2026-05-04 00:16 6.37853 112.80023 32786 ft 448 kts 306°
2026-05-04 00:17 6.39692 112.77467 33019 ft 448 kts 306°
2026-05-04 00:17 6.41517 112.74930 33244 ft 447 kts 306°
2026-05-04 00:17 6.43331 112.72409 33473 ft 447 kts 306°
2026-05-04 00:17 6.45150 112.69881 33703 ft 446 kts 306°
2026-05-04 00:18 6.46973 112.67347 33934 ft 445 kts 306°
2026-05-04 00:18 6.48780 112.64834 34164 ft 444 kts 306°
2026-05-04 00:18 6.50577 112.62333 34393 ft 443 kts 306°
2026-05-04 00:18 6.52369 112.59841 34623 ft 442 kts 306°
2026-05-04 00:19 6.54173 112.57323 34854 ft 440 kts 306°
2026-05-04 00:19 6.55957 112.54832 35086 ft 439 kts 306°
2026-05-04 00:19 6.57746 112.52334 35316 ft 437 kts 306°
2026-05-04 00:19 6.59527 112.49847 35549 ft 435 kts 306°
2026-05-04 00:20 6.61300 112.47369 35780 ft 433 kts 306°
2026-05-04 00:20 6.63062 112.44907 36010 ft 431 kts 306°
2026-05-04 00:20 6.64824 112.42445 36242 ft 428 kts 306°
2026-05-04 00:20 6.66572 112.40002 36476 ft 425 kts 306°
2026-05-04 00:21 6.68301 112.37585 36701 ft 423 kts 306°
2026-05-04 00:21 6.70010 112.35195 36932 ft 420 kts 306°
2026-05-04 00:21 6.71714 112.32812 37155 ft 417 kts 306°
2026-05-04 00:21 6.73407 112.30446 37373 ft 413 kts 306°
2026-05-04 00:22 6.75095 112.28084 37594 ft 410 kts 306°
2026-05-04 00:22 6.76750 112.25769 37814 ft 406 kts 306°
2026-05-04 00:22 6.78392 112.23472 37920 ft 405 kts 307°
2026-05-04 00:22 6.80055 112.21145 37882 ft 407 kts 306°
2026-05-04 00:23 6.83354 112.16528 37898 ft 409 kts 307°
2026-05-04 00:23 6.86690 112.11858 37904 ft 411 kts 307°
2026-05-04 00:24 6.90041 112.07166 37907 ft 414 kts 307°
2026-05-04 00:24 6.93398 112.02465 37910 ft 416 kts 307°
2026-05-04 00:25 6.96795 111.97706 37913 ft 419 kts 307°
2026-05-04 00:25 7.00193 111.92942 37910 ft 422 kts 307°
2026-05-04 00:26 7.03615 111.88145 37908 ft 424 kts 307°
2026-05-04 00:26 7.07076 111.83292 37906 ft 427 kts 307°
2026-05-04 00:27 7.10551 111.78417 37899 ft 430 kts 307°
2026-05-04 00:27 7.14068 111.73483 37897 ft 433 kts 307°
2026-05-04 00:28 7.17584 111.68549 37888 ft 436 kts 307°
2026-05-04 00:28 7.21137 111.63560 37889 ft 439 kts 307°
2026-05-04 00:29 7.24708 111.58545 37889 ft 442 kts 307°
2026-05-04 00:29 7.28294 111.53506 37889 ft 444 kts 307°
2026-05-04 00:30 7.31895 111.48441 37889 ft 447 kts 307°
2026-05-04 00:30 7.35528 111.43330 37885 ft 449 kts 307°
2026-05-04 00:31 7.39170 111.38203 37884 ft 451 kts 307°
2026-05-04 00:31 7.42819 111.33064 37881 ft 453 kts 307°
2026-05-04 00:32 7.46479 111.27908 37884 ft 454 kts 307°
2026-05-04 00:32 7.50160 111.22722 37889 ft 455 kts 307°
2026-05-04 00:33 7.55688 111.14930 37885 ft 457 kts 307°
2026-05-04 00:34 7.59375 111.09730 37892 ft 458 kts 307°
2026-05-04 00:34 7.63094 111.04485 37891 ft 459 kts 307°
2026-05-04 00:35 7.66790 110.99268 37901 ft 459 kts 308°
2026-05-04 00:35 7.70522 110.94001 37901 ft 460 kts 307°
2026-05-04 00:36 7.74233 110.88760 37898 ft 460 kts 307°
2026-05-04 00:36 7.77952 110.83506 37895 ft 461 kts 307°
2026-05-04 00:37 7.81685 110.78233 37895 ft 461 kts 307°
2026-05-04 00:37 7.85409 110.72968 37902 ft 462 kts 308°
2026-05-04 00:38 7.89139 110.67694 37906 ft 462 kts 307°
2026-05-04 00:38 7.92871 110.62414 37901 ft 462 kts 308°
2026-05-04 00:39 7.96608 110.57124 37897 ft 462 kts 307°
2026-05-04 00:39 8.00333 110.51851 37899 ft 462 kts 308°
2026-05-04 00:40 8.04057 110.46577 37913 ft 462 kts 308°
2026-05-04 00:40 8.07810 110.41261 37910 ft 462 kts 307°
2026-05-04 00:41 8.11523 110.35999 37903 ft 463 kts 307°
2026-05-04 00:41 8.15269 110.30690 37890 ft 463 kts 307°
2026-05-04 00:42 8.18983 110.25421 37897 ft 463 kts 307°
2026-05-04 00:42 8.22713 110.20137 37910 ft 462 kts 307°
2026-05-04 00:43 8.26454 110.14859 37912 ft 462 kts 308°
2026-05-04 00:43 8.30205 110.09563 37903 ft 462 kts 307°
2026-05-04 00:44 8.33924 110.04311 37897 ft 462 kts 307°
2026-05-04 00:44 8.37657 109.99035 37909 ft 461 kts 307°
2026-05-04 00:45 8.41406 109.93737 37908 ft 461 kts 307°
2026-05-04 00:45 8.45122 109.88482 37907 ft 461 kts 307°
2026-05-04 00:46 8.48860 109.83197 37909 ft 461 kts 307°
2026-05-04 00:46 8.52605 109.77896 37906 ft 461 kts 307°
2026-05-04 00:47 8.56318 109.72639 37907 ft 461 kts 307°
2026-05-04 00:47 8.60038 109.67371 37906 ft 460 kts 307°
2026-05-04 00:48 8.63765 109.62091 37909 ft 460 kts 307°
2026-05-04 00:48 8.67478 109.56828 37913 ft 460 kts 307°
2026-05-04 00:49 8.71181 109.51578 37917 ft 460 kts 307°
2026-05-04 00:49 8.74892 109.46314 37919 ft 459 kts 307°
2026-05-04 00:50 8.78602 109.41052 37922 ft 459 kts 307°
2026-05-04 00:50 8.82291 109.35815 37920 ft 459 kts 307°
2026-05-04 00:51 8.85972 109.30566 37917 ft 459 kts 307°
2026-05-04 00:51 8.89681 109.25275 37911 ft 459 kts 307°
2026-05-04 00:52 8.93355 109.20033 37907 ft 458 kts 307°
2026-05-04 00:52 8.97028 109.14788 37912 ft 458 kts 307°
2026-05-04 00:53 9.00707 109.09534 37901 ft 457 kts 307°
2026-05-04 00:53 9.04385 109.04278 37900 ft 457 kts 307°
2026-05-04 00:54 9.08064 108.99020 37900 ft 457 kts 307°
2026-05-04 00:54 9.11768 108.93721 37910 ft 457 kts 307°
2026-05-04 00:55 9.15435 108.88476 37909 ft 457 kts 307°
2026-05-04 00:55 9.19117 108.83206 37908 ft 457 kts 307°
2026-05-04 00:56 9.22770 108.77976 37902 ft 458 kts 307°
2026-05-04 00:56 9.26465 108.72682 37900 ft 458 kts 307°
2026-05-04 00:57 9.30126 108.67437 37903 ft 458 kts 307°
2026-05-04 00:57 9.33793 108.62179 37911 ft 458 kts 306°
2026-05-04 00:58 9.37478 108.56895 37911 ft 458 kts 306°
2026-05-04 00:58 9.41140 108.51641 37908 ft 458 kts 306°
2026-05-04 00:59 9.44820 108.46356 37903 ft 458 kts 306°
2026-05-04 00:59 9.48594 108.41191 37907 ft 457 kts 309°
2026-05-04 01:00 9.52450 108.36095 37903 ft 457 kts 308°
2026-05-04 01:00 9.56338 108.30952 37900 ft 457 kts 308°
2026-05-04 01:01 9.60198 108.25844 37902 ft 457 kts 308°
2026-05-04 01:01 9.64049 108.20744 37904 ft 457 kts 308°
2026-05-04 01:02 9.67922 108.15613 37904 ft 457 kts 308°
2026-05-04 01:02 9.71796 108.10478 37904 ft 457 kts 308°
2026-05-04 01:03 9.75668 108.05347 37905 ft 457 kts 308°
2026-05-04 01:03 9.79539 108.00213 37901 ft 457 kts 308°
2026-05-04 01:04 9.83407 107.95081 37899 ft 457 kts 308°
2026-05-04 01:04 9.87257 107.89970 37897 ft 457 kts 308°
2026-05-04 01:05 9.91093 107.84873 37896 ft 456 kts 308°
2026-05-04 01:05 9.94958 107.79739 37903 ft 457 kts 308°
2026-05-04 01:06 9.98815 107.74612 37906 ft 457 kts 308°
2026-05-04 01:06 10.02659 107.69501 37911 ft 457 kts 308°
2026-05-04 01:07 10.06505 107.64384 37907 ft 457 kts 308°
2026-05-04 01:07 10.10352 107.59264 37909 ft 457 kts 308°
2026-05-04 01:08 10.14202 107.54142 37901 ft 457 kts 308°
2026-05-04 01:08 10.18075 107.49015 37902 ft 457 kts 308°
2026-05-04 01:09 10.21945 107.43889 37904 ft 457 kts 308°
2026-05-04 01:09 10.25810 107.38769 37905 ft 457 kts 308°
2026-05-04 01:10 10.29697 107.33618 37908 ft 457 kts 308°
2026-05-04 01:10 10.33553 107.28506 37910 ft 457 kts 308°
2026-05-04 01:11 10.37397 107.23410 37912 ft 456 kts 308°
2026-05-04 01:11 10.41253 107.18295 37911 ft 456 kts 308°
2026-05-04 01:12 10.45141 107.13136 37903 ft 456 kts 308°
2026-05-04 01:12 10.49003 107.08012 37900 ft 456 kts 308°
2026-05-04 01:13 10.52898 107.02919 37910 ft 456 kts 308°
2026-05-04 01:13 10.56806 106.97813 37915 ft 456 kts 308°
2026-05-04 01:14 10.60702 106.92722 37910 ft 456 kts 308°
2026-05-04 01:14 10.64588 106.87642 37906 ft 456 kts 308°
2026-05-04 01:15 10.68473 106.82561 37903 ft 456 kts 308°
2026-05-04 01:15 10.72372 106.77460 37911 ft 456 kts 308°
2026-05-04 01:16 10.76263 106.72366 37919 ft 456 kts 308°
2026-05-04 01:16 10.80158 106.67265 37919 ft 456 kts 308°
2026-05-04 01:17 10.83302 106.61669 37957 ft 454 kts 294°
2026-05-04 01:17 10.85839 106.55800 37915 ft 456 kts 294°
2026-05-04 01:18 10.88403 106.49867 37909 ft 457 kts 294°
2026-05-04 01:18 10.90964 106.43937 37905 ft 458 kts 294°
2026-05-04 01:19 10.93522 106.38017 37907 ft 459 kts 294°
2026-05-04 01:19 10.96088 106.32067 37905 ft 460 kts 294°
2026-05-04 01:20 10.98664 106.26095 37913 ft 460 kts 294°
2026-05-04 01:20 11.01237 106.20124 37910 ft 461 kts 294°
2026-05-04 01:21 11.03680 106.14092 37905 ft 461 kts 291°
2026-05-04 01:21 11.06062 106.08041 37899 ft 462 kts 291°
2026-05-04 01:22 11.08453 106.01964 37901 ft 463 kts 291°
2026-05-04 01:22 11.10585 105.95788 37883 ft 461 kts 277°
2026-05-04 01:22 11.10645 105.92563 37945 ft 458 kts 262°
2026-05-04 01:23 11.10169 105.89383 37933 ft 458 kts 261°
2026-05-04 01:23 11.09240 105.82941 37916 ft 459 kts 261°
2026-05-04 01:24 11.08314 105.76533 37912 ft 460 kts 261°
2026-05-04 01:24 11.07450 105.70076 37888 ft 460 kts 268°
2026-05-04 01:24 11.07782 105.66864 37931 ft 459 kts 284°
2026-05-04 01:25 11.08817 105.63783 37950 ft 459 kts 289°
2026-05-04 01:25 11.10947 105.57680 37918 ft 460 kts 289°
2026-05-04 01:26 11.13091 105.51525 37910 ft 460 kts 289°
2026-05-04 01:26 11.15228 105.45390 37900 ft 460 kts 289°
2026-05-04 01:27 11.17360 105.39259 37894 ft 460 kts 289°
2026-05-04 01:27 11.19502 105.33101 37891 ft 460 kts 289°
2026-05-04 01:28 11.21623 105.26996 37890 ft 460 kts 289°
2026-05-04 01:28 11.23757 105.20849 37888 ft 459 kts 288°
2026-05-04 01:29 11.25880 105.14729 37891 ft 459 kts 288°
2026-05-04 01:29 11.28004 105.08601 37891 ft 459 kts 288°
2026-05-04 01:30 11.30130 105.02464 37892 ft 459 kts 289°
2026-05-04 01:30 11.32253 104.96333 37902 ft 458 kts 288°
2026-05-04 01:30 11.33534 104.93401 37872 ft 458 kts 302°
2026-05-04 01:31 11.35601 104.90904 37948 ft 457 kts 318°
2026-05-04 01:31 11.38184 104.89093 37918 ft 458 kts 334°
2026-05-04 01:31 11.41205 104.88005 37950 ft 457 kts 343°
2026-05-04 01:32 11.47283 104.86041 37901 ft 459 kts 341°
2026-05-04 01:32 11.53399 104.83997 37907 ft 460 kts 341°
2026-05-04 01:33 11.59518 104.81944 37909 ft 460 kts 341°
2026-05-04 01:33 11.65607 104.79900 37909 ft 461 kts 341°
2026-05-04 01:34 11.71728 104.77844 37911 ft 461 kts 341°
2026-05-04 01:34 11.77813 104.75799 37913 ft 461 kts 341°
2026-05-04 01:35 11.83938 104.73740 37912 ft 462 kts 341°
2026-05-04 01:35 11.90072 104.71677 37912 ft 462 kts 341°
2026-05-04 01:36 11.96188 104.69618 37917 ft 462 kts 341°
2026-05-04 01:36 12.02329 104.67551 37916 ft 462 kts 341°
2026-05-04 01:37 12.08465 104.65485 37917 ft 462 kts 341°
2026-05-04 01:37 12.14616 104.63411 37923 ft 462 kts 341°
2026-05-04 01:38 12.20733 104.61349 37929 ft 461 kts 341°
2026-05-04 01:38 12.26850 104.59285 37928 ft 461 kts 340°
2026-05-04 01:39 12.32936 104.57230 37925 ft 460 kts 341°
2026-05-04 01:39 12.39062 104.55162 37915 ft 459 kts 341°
2026-05-04 01:40 12.45141 104.53109 37911 ft 459 kts 340°
2026-05-04 01:40 12.51194 104.51062 37917 ft 458 kts 340°
2026-05-04 01:41 12.57256 104.49012 37916 ft 457 kts 340°
2026-05-04 01:41 12.63318 104.46960 37913 ft 456 kts 340°
2026-05-04 01:42 12.69380 104.44908 37913 ft 456 kts 340°
2026-05-04 01:42 12.75414 104.42866 37911 ft 455 kts 340°
2026-05-04 01:43 12.81456 104.40819 37908 ft 454 kts 340°
2026-05-04 01:43 12.87482 104.38766 37914 ft 453 kts 340°
2026-05-04 01:44 12.93479 104.36697 37917 ft 453 kts 340°
2026-05-04 01:44 12.99449 104.34635 37907 ft 452 kts 340°
2026-05-04 01:45 13.05450 104.32562 37899 ft 452 kts 340°
2026-05-04 01:45 13.14411 104.29466 37913 ft 452 kts 340°
2026-05-04 01:46 13.20390 104.27399 37910 ft 452 kts 340°
2026-05-04 01:46 13.26384 104.25326 37912 ft 451 kts 339°
2026-05-04 01:47 13.32361 104.23256 37921 ft 451 kts 339°
2026-05-04 01:47 13.38260 104.21078 37927 ft 449 kts 335°
2026-05-04 01:48 13.44035 104.18639 37921 ft 449 kts 336°
2026-05-04 01:48 13.49845 104.16201 37915 ft 449 kts 336°
2026-05-04 01:49 13.55680 104.13755 37915 ft 449 kts 336°
2026-05-04 01:49 13.61479 104.11323 37918 ft 449 kts 336°
2026-05-04 01:50 13.67267 104.08894 37914 ft 449 kts 336°
2026-05-04 01:50 13.73080 104.06453 37921 ft 449 kts 335°
2026-05-04 01:51 13.78890 104.04012 37922 ft 449 kts 335°
2026-05-04 01:51 13.84670 104.01582 37926 ft 449 kts 335°
2026-05-04 01:52 13.90474 103.99134 37928 ft 449 kts 335°
2026-05-04 01:52 13.96269 103.96687 37922 ft 449 kts 335°
2026-05-04 01:53 14.02080 103.94235 37922 ft 449 kts 335°
2026-05-04 01:53 14.07892 103.91779 37920 ft 449 kts 335°
2026-05-04 01:54 14.13679 103.89334 37915 ft 449 kts 335°
2026-05-04 01:54 14.19504 103.86871 37911 ft 449 kts 335°
2026-05-04 01:55 14.25277 103.84428 37914 ft 449 kts 335°
2026-05-04 01:55 14.31107 103.81959 37921 ft 449 kts 335°
2026-05-04 01:56 14.36987 103.79778 37905 ft 453 kts 349°
2026-05-04 01:56 14.43300 103.79600 37918 ft 456 kts 357°
2026-05-04 01:57 14.49677 103.79541 37946 ft 456 kts 357°
2026-05-04 01:57 14.56074 103.79480 37944 ft 457 kts 357°
2026-05-04 01:58 14.62430 103.79420 37939 ft 458 kts 356°
2026-05-04 01:58 14.68835 103.79357 37930 ft 458 kts 357°
2026-05-04 01:59 14.75261 103.79297 37926 ft 459 kts 357°
2026-05-04 01:59 14.81640 103.79232 37934 ft 459 kts 356°
2026-05-04 02:00 14.88069 103.79153 37940 ft 459 kts 357°
2026-05-04 02:00 14.94472 103.79076 37934 ft 460 kts 356°
2026-05-04 02:01 15.00881 103.78973 37924 ft 461 kts 356°
2026-05-04 02:01 15.07326 103.78863 37925 ft 461 kts 356°
2026-05-04 02:02 15.13795 103.78753 37917 ft 461 kts 356°
2026-05-04 02:02 15.20276 103.78649 37915 ft 461 kts 356°
2026-05-04 02:03 15.26693 103.78548 37922 ft 462 kts 356°
2026-05-04 02:03 15.33142 103.78446 37922 ft 462 kts 356°
2026-05-04 02:04 15.39587 103.78346 37918 ft 462 kts 356°
2026-05-04 02:04 15.46045 103.78244 37917 ft 462 kts 356°
2026-05-04 02:05 15.52502 103.78142 37917 ft 462 kts 356°
2026-05-04 02:05 15.58977 103.78041 37924 ft 462 kts 356°
2026-05-04 02:06 15.65400 103.77940 37927 ft 462 kts 356°
2026-05-04 02:06 15.71863 103.77837 37931 ft 462 kts 356°
2026-05-04 02:07 15.78310 103.77736 37937 ft 462 kts 356°
2026-05-04 02:07 15.84746 103.77634 37944 ft 462 kts 356°
2026-05-04 02:08 15.91222 103.77532 37945 ft 462 kts 356°
2026-05-04 02:08 15.97647 103.77431 37950 ft 462 kts 356°
2026-05-04 02:09 16.04116 103.77329 37945 ft 463 kts 356°
2026-05-04 02:09 16.10555 103.76932 37922 ft 457 kts 342°
2026-05-04 02:10 16.13496 103.75705 37983 ft 449 kts 327°
2026-05-04 02:10 16.16018 103.73837 37972 ft 446 kts 320°
2026-05-04 02:10 16.21020 103.69934 37941 ft 447 kts 321°
2026-05-04 02:11 16.25992 103.66051 37939 ft 448 kts 321°
2026-05-04 02:11 16.30974 103.62157 37939 ft 448 kts 320°
2026-05-04 02:12 16.35987 103.58235 37940 ft 448 kts 320°
2026-05-04 02:12 16.40986 103.54322 37942 ft 448 kts 320°
2026-05-04 02:13 16.45976 103.50415 37941 ft 448 kts 320°
2026-05-04 02:13 16.50981 103.46493 37942 ft 448 kts 320°
2026-05-04 02:14 16.55950 103.42598 37934 ft 448 kts 320°
2026-05-04 02:14 16.60932 103.38692 37936 ft 448 kts 320°
2026-05-04 02:15 16.65910 103.34786 37943 ft 448 kts 320°
2026-05-04 02:15 16.70917 103.30855 37956 ft 448 kts 320°
2026-05-04 02:16 16.75901 103.26940 37968 ft 448 kts 320°
2026-05-04 02:16 16.80892 103.23016 37963 ft 448 kts 320°
2026-05-04 02:17 16.85880 103.19091 37956 ft 449 kts 320°
2026-05-04 02:17 16.90890 103.15148 37951 ft 449 kts 320°
2026-05-04 02:18 16.95891 103.11208 37951 ft 449 kts 320°
2026-05-04 02:18 17.00882 103.07272 37947 ft 449 kts 320°
2026-05-04 02:19 17.05843 103.03353 37940 ft 449 kts 320°
2026-05-04 02:19 17.10852 102.99394 37939 ft 449 kts 320°
2026-05-04 02:20 17.15839 102.95449 37945 ft 449 kts 320°
2026-05-04 02:20 17.20822 102.91504 37959 ft 448 kts 320°
2026-05-04 02:21 17.25798 102.87563 37952 ft 448 kts 320°
2026-05-04 02:21 17.30771 102.83621 37951 ft 448 kts 320°
2026-05-04 02:22 17.35718 102.79697 37952 ft 448 kts 320°
2026-05-04 02:22 17.41159 102.76485 37986 ft 452 kts 338°
2026-05-04 02:23 17.47105 102.74278 37947 ft 453 kts 337°
2026-05-04 02:23 17.53073 102.72047 37963 ft 453 kts 337°
2026-05-04 02:24 17.59020 102.69823 37958 ft 453 kts 337°
2026-05-04 02:24 17.64980 102.67591 37958 ft 453 kts 337°
2026-05-04 02:25 17.70947 102.65355 37964 ft 453 kts 337°
2026-05-04 02:25 17.76882 102.63130 37966 ft 453 kts 337°
2026-05-04 02:26 17.82838 102.60894 37963 ft 453 kts 337°
2026-05-04 02:26 17.88790 102.58659 37966 ft 453 kts 337°
2026-05-04 02:27 17.94730 102.56426 37978 ft 452 kts 337°
2026-05-04 02:27 18.00704 102.54198 37968 ft 453 kts 340°
2026-05-04 02:28 18.06952 102.52917 37971 ft 455 kts 346°
2026-05-04 02:28 18.13183 102.51721 37982 ft 456 kts 346°
2026-05-04 02:29 18.19441 102.50519 37976 ft 456 kts 346°
2026-05-04 02:29 18.25711 102.49313 37973 ft 456 kts 346°
2026-05-04 02:30 18.31982 102.48108 37971 ft 456 kts 346°
2026-05-04 02:30 18.38229 102.46905 37980 ft 455 kts 346°
2026-05-04 02:31 18.44461 102.45705 37977 ft 455 kts 346°
2026-05-04 02:31 18.50701 102.44502 37994 ft 455 kts 346°
2026-05-04 02:32 18.56976 102.43291 37993 ft 455 kts 346°
2026-05-04 02:32 18.63231 102.42083 38003 ft 454 kts 346°
2026-05-04 02:33 18.69490 102.40874 37998 ft 454 kts 346°
2026-05-04 02:33 18.75688 102.39677 37994 ft 454 kts 346°
2026-05-04 02:34 18.81936 102.38467 38024 ft 454 kts 346°
2026-05-04 02:34 18.88139 102.37266 38050 ft 453 kts 346°
2026-05-04 02:35 18.94383 102.36056 38083 ft 452 kts 346°
2026-05-04 02:35 19.00582 102.34854 38087 ft 452 kts 345°
2026-05-04 02:36 19.06764 102.33654 38114 ft 452 kts 345°
2026-05-04 02:36 19.12987 102.32445 38121 ft 452 kts 345°
2026-05-04 02:37 19.19203 102.31236 38105 ft 452 kts 345°
2026-05-04 02:37 19.25377 102.30036 38085 ft 453 kts 345°
2026-05-04 02:38 19.31638 102.28817 38089 ft 453 kts 345°
2026-05-04 02:38 19.37856 102.27605 38094 ft 453 kts 345°
2026-05-04 02:39 19.44071 102.26394 38103 ft 453 kts 345°
2026-05-04 02:39 19.50263 102.25185 38093 ft 453 kts 345°
2026-05-04 02:40 19.56482 102.23972 38085 ft 454 kts 345°
2026-05-04 02:40 19.62729 102.22751 38081 ft 454 kts 345°
2026-05-04 02:41 19.68928 102.21537 38068 ft 454 kts 345°
2026-05-04 02:41 19.75208 102.20309 38050 ft 454 kts 345°
2026-05-04 02:42 19.81431 102.19089 38029 ft 455 kts 345°
2026-05-04 02:42 19.87679 102.17865 38016 ft 456 kts 345°
2026-05-04 02:43 19.93748 102.16072 38042 ft 448 kts 334°
2026-05-04 02:43 19.99574 102.13596 38020 ft 449 kts 334°
2026-05-04 02:44 20.05373 102.11131 38054 ft 448 kts 334°
2026-05-04 02:44 20.11154 102.08672 38068 ft 448 kts 334°
2026-05-04 02:45 20.16981 102.06190 38096 ft 448 kts 334°
2026-05-04 02:45 20.22764 102.03725 38096 ft 449 kts 334°
2026-05-04 02:46 20.28601 102.01235 38094 ft 449 kts 334°
2026-05-04 02:46 20.34401 101.98759 38090 ft 449 kts 334°
2026-05-04 02:47 20.40202 101.96281 38093 ft 449 kts 334°
2026-05-04 02:47 20.46013 101.93797 38101 ft 449 kts 334°
2026-05-04 02:48 20.51828 101.91309 38093 ft 449 kts 334°
2026-05-04 02:48 20.57667 101.88808 38111 ft 450 kts 334°
2026-05-04 02:49 20.63480 101.86315 38112 ft 450 kts 334°
2026-05-04 02:49 20.69298 101.83820 38122 ft 450 kts 334°
2026-05-04 02:50 20.75135 101.81313 38139 ft 450 kts 334°
2026-05-04 02:50 20.80946 101.78817 38128 ft 451 kts 334°
2026-05-04 02:51 20.86802 101.76300 38117 ft 451 kts 334°
2026-05-04 02:51 20.92621 101.73794 38111 ft 451 kts 334°
2026-05-04 02:52 20.98457 101.71279 38125 ft 451 kts 334°
2026-05-04 02:52 21.04316 101.68754 38129 ft 452 kts 334°
2026-05-04 02:53 21.10181 101.66222 38134 ft 452 kts 334°
2026-05-04 02:53 21.16013 101.63704 38144 ft 452 kts 334°
2026-05-04 02:54 21.21864 101.61189 38145 ft 452 kts 334°
2026-05-04 02:54 21.27697 101.58695 38149 ft 451 kts 334°
2026-05-04 02:55 21.36452 101.54949 38159 ft 451 kts 334°
2026-05-04 02:56 21.42304 101.52441 38157 ft 451 kts 334°
2026-05-04 02:56 21.48139 101.49938 38158 ft 451 kts 334°
2026-05-04 02:57 21.53992 101.47427 38158 ft 450 kts 335°
2026-05-04 02:57 21.59798 101.44932 38170 ft 450 kts 334°
2026-05-04 02:58 21.65629 101.42426 38181 ft 449 kts 334°
2026-05-04 02:58 21.71425 101.39932 38193 ft 448 kts 335°
2026-05-04 02:59 21.77236 101.37429 38192 ft 448 kts 335°
2026-05-04 02:59 21.82991 101.34948 38171 ft 448 kts 335°
2026-05-04 03:00 21.88814 101.32436 38163 ft 449 kts 335°
2026-05-04 03:00 21.94614 101.29935 38158 ft 449 kts 335°
2026-05-04 03:01 22.00431 101.27431 38143 ft 449 kts 335°
2026-05-04 03:01 22.06225 101.24934 38145 ft 449 kts 335°
2026-05-04 03:02 22.12051 101.22422 38158 ft 449 kts 335°
2026-05-04 03:02 22.17864 101.19913 38169 ft 448 kts 335°
2026-05-04 03:03 22.23670 101.17404 38175 ft 449 kts 334°
2026-05-04 03:03 22.29473 101.14895 38180 ft 449 kts 334°
2026-05-04 03:04 22.35292 101.12376 38183 ft 449 kts 334°
2026-05-04 03:04 22.41077 101.09870 38192 ft 449 kts 334°
2026-05-04 03:05 22.46918 101.07336 38210 ft 449 kts 334°
2026-05-04 03:05 22.52708 101.04824 38222 ft 449 kts 334°
2026-05-04 03:06 22.58511 101.02303 38225 ft 449 kts 334°
2026-05-04 03:06 22.64322 100.99777 38233 ft 449 kts 334°
2026-05-04 03:07 22.70105 100.97259 38235 ft 449 kts 334°
2026-05-04 03:07 22.76113 100.95270 38262 ft 451 kts 341°
2026-05-04 03:08 22.82198 100.93513 38251 ft 452 kts 341°
2026-05-04 03:08 22.88308 100.91749 38246 ft 452 kts 341°
2026-05-04 03:09 22.94372 100.89995 38250 ft 452 kts 341°
2026-05-04 03:09 23.00487 100.88225 38253 ft 452 kts 341°
2026-05-04 03:10 23.06579 100.86459 38260 ft 452 kts 341°
2026-05-04 03:10 23.12688 100.84689 38268 ft 452 kts 341°
2026-05-04 03:11 23.18775 100.82921 38269 ft 451 kts 341°
2026-05-04 03:11 23.24842 100.81157 38268 ft 451 kts 341°
2026-05-04 03:12 23.30906 100.79394 38260 ft 451 kts 341°
2026-05-04 03:12 23.36970 100.77628 38265 ft 451 kts 341°
2026-05-04 03:13 23.43037 100.75861 38253 ft 451 kts 341°
2026-05-04 03:13 23.49128 100.74084 38255 ft 450 kts 341°
2026-05-04 03:14 23.55191 100.72314 38270 ft 450 kts 341°
2026-05-04 03:14 23.61223 100.70551 38269 ft 450 kts 341°
2026-05-04 03:15 23.67299 100.68774 38264 ft 450 kts 341°
2026-05-04 03:15 23.73332 100.67008 38260 ft 449 kts 341°
2026-05-04 03:16 23.79376 100.65237 38277 ft 449 kts 341°
2026-05-04 03:16 23.85399 100.63470 38278 ft 448 kts 341°
2026-05-04 03:17 23.91444 100.61694 38265 ft 448 kts 341°
2026-05-04 03:17 23.97482 100.59920 38270 ft 447 kts 341°
2026-05-04 03:18 24.03504 100.58148 38271 ft 447 kts 341°
2026-05-04 03:18 24.09512 100.56379 38287 ft 446 kts 341°
2026-05-04 03:19 24.15543 100.54608 38280 ft 446 kts 341°
2026-05-04 03:19 24.21561 100.52846 38286 ft 446 kts 341°
2026-05-04 03:20 24.27567 100.51086 38282 ft 446 kts 341°
2026-05-04 03:20 24.33571 100.49324 38273 ft 446 kts 341°
2026-05-04 03:21 24.39558 100.47565 38283 ft 446 kts 341°
2026-05-04 03:21 24.45574 100.45796 38309 ft 445 kts 341°
2026-05-04 03:22 24.51540 100.44041 38307 ft 445 kts 341°
2026-05-04 03:22 24.57560 100.42265 38307 ft 445 kts 341°
2026-05-04 03:23 24.63543 100.40496 38306 ft 444 kts 341°
2026-05-04 03:23 24.69532 100.38724 38302 ft 444 kts 341°
2026-05-04 03:24 24.75489 100.36959 38307 ft 444 kts 341°
2026-05-04 03:24 24.81477 100.35183 38312 ft 444 kts 340°
2026-05-04 03:25 24.87460 100.33407 38317 ft 444 kts 340°
2026-05-04 03:25 24.93452 100.31626 38327 ft 444 kts 340°
2026-05-04 03:26 24.99422 100.29850 38308 ft 445 kts 340°
2026-05-04 03:26 25.05384 100.28078 38315 ft 444 kts 340°
2026-05-04 03:27 25.11409 100.26303 38305 ft 445 kts 340°
2026-05-04 03:27 25.17426 100.24530 38321 ft 444 kts 340°
2026-05-04 03:28 25.23374 100.22774 38344 ft 444 kts 340°
2026-05-04 03:28 25.29345 100.21011 38336 ft 444 kts 340°
2026-05-04 03:29 25.35333 100.19241 38330 ft 444 kts 340°
2026-05-04 03:29 25.41303 100.17475 38355 ft 444 kts 340°
2026-05-04 03:30 25.47278 100.15704 38349 ft 444 kts 340°
2026-05-04 03:30 25.53252 100.13933 38347 ft 444 kts 340°
2026-05-04 03:31 25.59226 100.12159 38360 ft 443 kts 340°
2026-05-04 03:31 25.65167 100.10394 38379 ft 443 kts 339°
2026-05-04 03:32 25.71158 100.08611 38377 ft 442 kts 339°
2026-05-04 03:32 25.77107 100.06839 38403 ft 442 kts 340°
2026-05-04 03:33 25.83028 100.05075 38406 ft 442 kts 339°
2026-05-04 03:33 25.88989 100.03295 38405 ft 442 kts 339°
2026-05-04 03:34 25.94913 100.01526 38419 ft 441 kts 339°
2026-05-04 03:34 26.00925 100.00008 38395 ft 449 kts 351°
2026-05-04 03:35 26.07198 99.99999 38389 ft 452 kts 353°
2026-05-04 03:35 26.13514 100.00000 38420 ft 452 kts 354°
2026-05-04 03:36 26.19826 100.00000 38427 ft 452 kts 354°
2026-05-04 03:36 26.26123 100.00000 38422 ft 452 kts 354°
2026-05-04 03:37 26.32415 100.00000 38424 ft 452 kts 353°
2026-05-04 03:37 26.38729 100.00001 38421 ft 452 kts 353°
2026-05-04 03:38 26.45024 100.00001 38417 ft 452 kts 353°
2026-05-04 03:38 26.51286 100.00000 38412 ft 451 kts 353°
2026-05-04 03:39 26.57614 100.00000 38413 ft 451 kts 353°
2026-05-04 03:39 26.63888 100.00001 38417 ft 451 kts 353°
2026-05-04 03:40 26.70176 100.00001 38419 ft 450 kts 353°
2026-05-04 03:40 26.76448 100.00000 38428 ft 450 kts 353°
2026-05-04 03:41 26.82701 100.00000 38429 ft 450 kts 353°
2026-05-04 03:41 26.88971 100.00000 38428 ft 449 kts 353°
2026-05-04 03:42 26.95230 100.00000 38427 ft 449 kts 353°
2026-05-04 03:42 27.01505 100.00000 38427 ft 449 kts 353°
2026-05-04 03:43 27.07749 100.00001 38443 ft 448 kts 353°
2026-05-04 03:43 27.13988 100.00000 38435 ft 448 kts 353°
2026-05-04 03:44 27.20224 100.00000 38461 ft 448 kts 353°
2026-05-04 03:44 27.26468 99.99999 38478 ft 447 kts 353°
2026-05-04 03:45 27.32699 100.00000 38508 ft 447 kts 353°
2026-05-04 03:45 27.38946 100.00000 38536 ft 446 kts 353°
2026-05-04 03:46 27.45170 100.00000 38555 ft 446 kts 353°
2026-05-04 03:46 27.51385 100.00000 38560 ft 446 kts 353°
2026-05-04 03:47 27.57579 100.00000 38571 ft 445 kts 353°
2026-05-04 03:47 27.63808 100.00000 38569 ft 445 kts 353°
2026-05-04 03:48 27.69975 100.00000 38589 ft 445 kts 353°
2026-05-04 03:48 27.76188 99.99999 38605 ft 445 kts 353°
2026-05-04 03:49 27.82399 100.00001 38616 ft 445 kts 353°
2026-05-04 03:49 27.88609 100.00001 38613 ft 445 kts 353°
2026-05-04 03:50 27.94815 100.00001 38646 ft 444 kts 353°
2026-05-04 03:50 28.01014 99.99999 38633 ft 444 kts 353°
2026-05-04 03:51 28.07209 100.00000 38639 ft 444 kts 353°
2026-05-04 03:51 28.13408 100.00001 38640 ft 444 kts 353°
2026-05-04 03:52 28.19609 100.00000 38599 ft 445 kts 353°
2026-05-04 03:52 28.25796 100.00002 38597 ft 445 kts 352°
2026-05-04 03:53 28.31983 100.00000 38597 ft 445 kts 352°
2026-05-04 03:53 28.38159 100.00002 38600 ft 444 kts 352°
2026-05-04 03:54 28.44365 99.99998 38602 ft 444 kts 353°
2026-05-04 03:54 28.50584 100.00001 38602 ft 444 kts 352°
2026-05-04 03:55 28.56763 100.00001 38624 ft 444 kts 352°
2026-05-04 03:55 28.62965 99.99999 38643 ft 443 kts 352°
2026-05-04 03:56 28.69105 100.00001 38654 ft 443 kts 352°
2026-05-04 03:56 28.75264 99.99999 38677 ft 442 kts 352°
2026-05-04 03:57 28.81424 100.00001 38674 ft 442 kts 352°
2026-05-04 03:57 28.87582 99.99999 38655 ft 442 kts 352°
2026-05-04 03:58 28.96849 99.99999 38659 ft 442 kts 352°
2026-05-04 03:58 29.03029 100.00000 38663 ft 442 kts 352°
2026-05-04 03:59 29.09206 100.00001 38651 ft 442 kts 352°
2026-05-04 03:59 29.15345 100.00001 38672 ft 441 kts 352°
2026-05-04 04:00 29.21505 100.00001 38685 ft 441 kts 352°
2026-05-04 04:00 29.27643 100.00001 38701 ft 441 kts 352°
2026-05-04 04:01 29.33785 100.00000 38675 ft 441 kts 352°
2026-05-04 04:01 29.39905 100.00000 38686 ft 441 kts 352°
2026-05-04 04:02 29.46061 100.00002 38698 ft 441 kts 351°
2026-05-04 04:02 29.52175 100.00001 38688 ft 441 kts 352°
2026-05-04 04:03 29.58292 100.00001 38699 ft 440 kts 352°
2026-05-04 04:03 29.64450 100.00001 38711 ft 440 kts 351°
2026-05-04 04:04 29.70570 99.99998 38717 ft 440 kts 351°
2026-05-04 04:04 29.76700 100.00000 38730 ft 440 kts 351°
2026-05-04 04:05 29.82794 99.99999 38715 ft 440 kts 351°
2026-05-04 04:05 29.88932 100.00001 38736 ft 439 kts 351°
2026-05-04 04:06 29.95035 100.00001 38727 ft 438 kts 351°
2026-05-04 04:06 30.01162 100.00000 38727 ft 438 kts 351°
2026-05-04 04:07 30.07251 100.00000 38739 ft 438 kts 351°
2026-05-04 04:07 30.13350 100.00001 38755 ft 438 kts 351°
2026-05-04 04:08 30.19453 99.99999 38752 ft 437 kts 351°
2026-05-04 04:08 30.25539 100.00000 38746 ft 437 kts 351°
2026-05-04 04:09 30.31637 100.00000 38743 ft 437 kts 351°
2026-05-04 04:09 30.37738 100.00000 38731 ft 437 kts 351°
2026-05-04 04:10 30.43849 100.00000 38710 ft 437 kts 351°
2026-05-04 04:10 30.49892 100.00000 38723 ft 437 kts 351°
2026-05-04 04:11 30.56017 100.00000 38730 ft 436 kts 351°
2026-05-04 04:11 30.62086 100.00000 38733 ft 436 kts 351°
2026-05-04 04:12 30.68164 99.99999 38728 ft 436 kts 351°
2026-05-04 04:12 30.74220 100.00000 38756 ft 435 kts 351°
2026-05-04 04:13 30.80277 100.00000 38746 ft 435 kts 351°
2026-05-04 04:13 30.86326 99.99999 38738 ft 435 kts 351°
2026-05-04 04:14 30.92423 100.00000 38724 ft 435 kts 351°
2026-05-04 04:14 30.98465 100.00000 38704 ft 435 kts 351°
2026-05-04 04:15 31.04544 100.00000 38696 ft 436 kts 351°
2026-05-04 04:15 31.10605 99.99999 38681 ft 436 kts 351°
2026-05-04 04:16 31.16694 99.99999 38675 ft 435 kts 351°
2026-05-04 04:16 31.22773 99.99999 38697 ft 435 kts 351°
2026-05-04 04:17 31.28810 99.99999 38686 ft 434 kts 351°
2026-05-04 04:17 31.34888 100.00000 38694 ft 434 kts 351°
2026-05-04 04:18 31.40955 100.00000 38680 ft 434 kts 351°
2026-05-04 04:18 31.46964 100.00000 38661 ft 434 kts 351°
2026-05-04 04:19 31.53017 100.00001 38682 ft 433 kts 351°
2026-05-04 04:19 31.59019 100.00000 38682 ft 433 kts 351°
2026-05-04 04:20 31.65052 100.00000 38692 ft 432 kts 351°
2026-05-04 04:20 31.71069 100.00000 38693 ft 431 kts 352°
2026-05-04 04:21 31.77072 100.00000 38708 ft 430 kts 352°
2026-05-04 04:21 31.83058 100.00001 38685 ft 430 kts 351°
2026-05-04 04:22 31.89038 100.00000 38683 ft 430 kts 351°
2026-05-04 04:22 31.95013 99.99996 38663 ft 429 kts 351°
2026-05-04 04:23 31.97898 99.99490 38670 ft 411 kts 335°
2026-05-04 04:23 32.00400 99.98019 38713 ft 398 kts 320°
2026-05-04 04:23 32.02367 99.95794 38646 ft 392 kts 307°
2026-05-04 04:23 32.04022 99.93254 38683 ft 391 kts 306°
2026-05-04 04:24 32.07264 99.88058 38662 ft 392 kts 304°
2026-05-04 04:24 32.10450 99.82835 38674 ft 391 kts 304°
2026-05-04 04:25 32.13615 99.77614 38678 ft 392 kts 304°
2026-05-04 04:25 32.16771 99.72407 38692 ft 392 kts 304°
2026-05-04 04:26 32.19939 99.67167 38700 ft 393 kts 304°
2026-05-04 04:26 32.23118 99.61903 38689 ft 393 kts 304°
2026-05-04 04:27 32.26290 99.56643 38684 ft 393 kts 304°
2026-05-04 04:27 32.29448 99.51401 38665 ft 394 kts 304°
2026-05-04 04:28 32.32619 99.46126 38670 ft 394 kts 304°
2026-05-04 04:28 32.35780 99.40865 38712 ft 393 kts 304°
2026-05-04 04:29 32.38940 99.35594 38709 ft 393 kts 304°
2026-05-04 04:29 32.42099 99.30323 38727 ft 393 kts 303°
2026-05-04 04:30 32.45266 99.25029 38729 ft 394 kts 304°
2026-05-04 04:30 32.48434 99.19721 38750 ft 395 kts 303°
2026-05-04 04:31 32.51602 99.14414 38752 ft 395 kts 304°
2026-05-04 04:31 32.54769 99.09091 38753 ft 395 kts 304°
2026-05-04 04:32 32.57934 99.03775 38768 ft 395 kts 304°
2026-05-04 04:32 32.61105 98.98483 38786 ft 395 kts 305°
2026-05-04 04:33 32.64356 98.93200 38765 ft 395 kts 305°
2026-05-04 04:33 32.67591 98.87929 38740 ft 396 kts 305°
2026-05-04 04:34 32.70833 98.82638 38720 ft 396 kts 305°
2026-05-04 04:34 32.74063 98.77361 38713 ft 396 kts 304°
2026-05-04 04:35 32.77279 98.72100 38698 ft 395 kts 304°
2026-05-04 04:35 32.80503 98.66816 38699 ft 395 kts 305°
2026-05-04 04:36 32.83703 98.61565 38708 ft 394 kts 304°
2026-05-04 04:36 32.86911 98.56297 38715 ft 393 kts 305°
2026-05-04 04:37 32.93304 98.45770 38722 ft 392 kts 304°
2026-05-04 04:38 32.96498 98.40517 38712 ft 392 kts 305°
2026-05-04 04:38 32.99722 98.35284 38717 ft 392 kts 305°
2026-05-04 04:39 33.02945 98.30039 38731 ft 392 kts 304°
2026-05-04 04:39 33.06165 98.24789 38729 ft 393 kts 304°
2026-05-04 04:40 33.09399 98.19514 38724 ft 393 kts 304°
2026-05-04 04:40 33.12620 98.14251 38723 ft 394 kts 304°
2026-05-04 04:41 33.15848 98.08965 38713 ft 394 kts 304°
2026-05-04 04:41 33.19077 98.03674 38708 ft 395 kts 304°
2026-05-04 04:42 33.22316 97.98357 38713 ft 395 kts 304°
2026-05-04 04:42 33.25537 97.93065 38711 ft 395 kts 304°
2026-05-04 04:43 33.28774 97.87738 38707 ft 395 kts 304°
2026-05-04 04:43 33.31985 97.82441 38706 ft 396 kts 304°
2026-05-04 04:44 33.35220 97.77106 38700 ft 396 kts 304°
2026-05-04 04:44 33.38429 97.71802 38694 ft 395 kts 304°
2026-05-04 04:45 33.41649 97.66466 38698 ft 395 kts 304°
2026-05-04 04:47 33.52894 97.47794 38696 ft 394 kts 304°
2026-05-04 04:47 33.56099 97.42451 38686 ft 394 kts 304°
2026-05-04 04:48 33.59280 97.37139 38688 ft 394 kts 304°
2026-05-04 04:49 33.67244 97.23815 38721 ft 394 kts 303°
2026-05-04 04:49 33.70444 97.18446 38720 ft 395 kts 303°
2026-05-04 04:50 33.73638 97.13084 38720 ft 395 kts 303°
2026-05-04 04:50 33.76814 97.07742 38713 ft 395 kts 304°
2026-05-04 04:51 33.80002 97.02372 38708 ft 395 kts 303°
2026-05-04 04:51 33.83179 96.97010 38717 ft 394 kts 303°
2026-05-04 04:52 33.86349 96.91652 38725 ft 394 kts 303°
2026-05-04 04:52 33.89534 96.86267 38721 ft 394 kts 303°
2026-05-04 04:53 33.92691 96.80917 38720 ft 394 kts 303°
2026-05-04 04:53 33.95865 96.75526 38709 ft 394 kts 303°
2026-05-04 04:54 33.99028 96.70152 38725 ft 394 kts 303°
2026-05-04 04:54 34.02187 96.64774 38723 ft 394 kts 303°
2026-05-04 04:55 34.05347 96.59386 38735 ft 394 kts 303°
2026-05-04 04:55 34.08491 96.54018 38746 ft 394 kts 303°
2026-05-04 04:56 34.11681 96.48602 38739 ft 394 kts 304°
2026-05-04 04:56 34.14901 96.43264 38753 ft 394 kts 304°
2026-05-04 04:57 34.18129 96.37901 38746 ft 395 kts 304°
2026-05-04 04:57 34.21353 96.32539 38742 ft 396 kts 303°
2026-05-04 04:58 34.24575 96.27169 38730 ft 397 kts 304°
2026-05-04 04:58 34.27818 96.21757 38725 ft 399 kts 304°
2026-05-04 04:59 34.31066 96.16329 38736 ft 399 kts 304°
2026-05-04 04:59 34.34341 96.10846 38726 ft 400 kts 304°
2026-05-04 05:00 34.37590 96.05404 38733 ft 400 kts 304°
2026-05-04 05:01 34.42478 95.97192 38729 ft 400 kts 304°
2026-05-04 05:01 34.45726 95.91724 38734 ft 400 kts 304°
2026-05-04 05:02 34.48956 95.86279 38754 ft 400 kts 304°
2026-05-04 05:02 34.52208 95.80793 38755 ft 400 kts 303°
2026-05-04 05:03 34.55450 95.75310 38748 ft 400 kts 304°
2026-05-04 05:04 34.61924 95.64343 38747 ft 400 kts 303°
2026-05-04 05:04 34.65158 95.58849 38738 ft 400 kts 303°
2026-05-04 05:06 34.78044 95.36878 38707 ft 400 kts 303°
2026-05-04 05:07 34.81277 95.31348 38763 ft 400 kts 303°
2026-05-04 05:07 34.84491 95.25834 38746 ft 401 kts 303°
2026-05-04 05:09 34.99037 95.00792 38736 ft 402 kts 302°
2026-05-04 05:10 35.02234 94.95261 38724 ft 402 kts 303°
2026-05-04 05:10 35.05466 94.89668 38715 ft 403 kts 302°
2026-05-04 05:11 35.08676 94.84096 38753 ft 403 kts 303°
2026-05-04 05:11 35.11922 94.78457 38743 ft 403 kts 302°
2026-05-04 05:12 35.15132 94.72868 38739 ft 404 kts 302°
2026-05-04 05:12 35.18369 94.67232 38765 ft 404 kts 303°
2026-05-04 05:13 35.21584 94.61615 38747 ft 405 kts 303°
2026-05-04 05:13 35.24829 94.55941 38722 ft 406 kts 303°
2026-05-04 05:14 35.28058 94.50288 38726 ft 406 kts 303°
2026-05-04 05:14 35.31276 94.44646 38724 ft 406 kts 303°
2026-05-04 05:15 35.34508 94.38967 38708 ft 406 kts 302°
2026-05-04 05:15 35.37734 94.33288 38723 ft 407 kts 302°
2026-05-04 05:16 35.40969 94.27585 38751 ft 407 kts 302°
2026-05-04 05:16 35.44211 94.21860 38725 ft 408 kts 302°
2026-05-04 05:17 35.47496 94.16225 38745 ft 408 kts 303°
2026-05-04 05:17 35.50831 94.10551 38723 ft 409 kts 303°
2026-05-04 05:18 35.54146 94.04905 38740 ft 409 kts 303°
2026-05-04 05:18 35.57475 93.99226 38747 ft 409 kts 303°
2026-05-04 05:19 35.60799 93.93542 38725 ft 410 kts 303°
2026-05-04 05:19 35.64123 93.87855 38727 ft 410 kts 303°
2026-05-04 05:20 35.67429 93.82191 38731 ft 410 kts 303°
2026-05-04 05:20 35.70746 93.76494 38721 ft 410 kts 303°
2026-05-04 05:21 35.74077 93.70761 38701 ft 411 kts 303°
2026-05-04 05:21 35.77385 93.65064 38690 ft 411 kts 303°
2026-05-04 05:22 35.80708 93.59330 38705 ft 411 kts 303°
2026-05-04 05:22 35.84014 93.53616 38727 ft 410 kts 303°
2026-05-04 05:23 35.87321 93.47888 38719 ft 410 kts 303°
2026-05-04 05:23 35.90609 93.42187 38730 ft 410 kts 303°
2026-05-04 05:24 35.93926 93.36425 38758 ft 410 kts 302°
2026-05-04 05:24 35.97218 93.30697 38774 ft 411 kts 302°
2026-05-04 05:25 36.00528 93.24956 38729 ft 413 kts 303°
2026-05-04 05:25 36.03930 93.19280 38797 ft 412 kts 303°
2026-05-04 05:26 36.07350 93.13555 38760 ft 413 kts 303°
2026-05-04 05:26 36.10742 93.07867 38774 ft 413 kts 303°
2026-05-04 05:28 36.24416 92.84845 38696 ft 416 kts 303°
2026-05-04 05:29 36.27836 92.79060 38694 ft 416 kts 303°
2026-05-04 05:29 36.31252 92.73272 38666 ft 416 kts 303°
2026-05-04 05:31 36.44867 92.50116 38690 ft 416 kts 303°
2026-05-04 05:32 36.48280 92.44288 38663 ft 416 kts 303°
2026-05-04 05:33 36.53377 92.35561 38650 ft 416 kts 303°
2026-05-04 05:33 36.56773 92.29736 38628 ft 417 kts 303°
2026-05-04 05:34 36.60170 92.23900 38638 ft 418 kts 303°
2026-05-04 05:34 36.63566 92.18052 38648 ft 417 kts 303°
2026-05-04 05:35 36.66971 92.12183 38617 ft 418 kts 303°
2026-05-04 05:35 36.70358 92.06332 38665 ft 416 kts 303°
2026-05-04 05:36 36.73734 92.00489 38615 ft 418 kts 303°
2026-05-04 05:36 36.77132 91.94601 38612 ft 417 kts 302°
2026-05-04 05:37 36.80521 91.88715 38630 ft 417 kts 303°
2026-05-04 05:37 36.83901 91.82836 38621 ft 417 kts 303°
2026-05-04 05:38 36.88955 91.74023 38614 ft 417 kts 303°
2026-05-04 05:38 36.92325 91.68137 38605 ft 417 kts 303°
2026-05-04 05:39 36.97396 91.59260 38611 ft 417 kts 303°
2026-05-04 05:40 37.02439 91.50406 38614 ft 417 kts 302°
2026-05-04 05:40 37.05799 91.44498 38613 ft 418 kts 302°
2026-05-04 05:41 37.09158 91.38580 38601 ft 418 kts 303°
2026-05-04 05:41 37.12531 91.32620 38610 ft 418 kts 302°
2026-05-04 05:42 37.15910 91.26644 38585 ft 419 kts 302°
2026-05-04 05:42 37.19253 91.20722 38609 ft 419 kts 302°
2026-05-04 05:43 37.22626 91.14736 38589 ft 420 kts 302°
2026-05-04 05:45 37.36104 90.90707 38552 ft 422 kts 302°
2026-05-04 05:47 37.49565 90.66532 38498 ft 423 kts 302°
2026-05-04 05:47 37.52919 90.60484 38485 ft 423 kts 302°
2026-05-04 05:48 37.56292 90.54389 38523 ft 422 kts 302°
2026-05-04 05:48 37.59650 90.48305 38505 ft 423 kts 302°
2026-05-04 05:49 37.62993 90.42239 38487 ft 423 kts 302°
2026-05-04 05:49 37.66350 90.36140 38460 ft 424 kts 302°
2026-05-04 05:51 37.79831 90.11761 38443 ft 426 kts 302°
2026-05-04 05:52 37.83285 90.05622 38439 ft 427 kts 302°
2026-05-04 05:52 37.86706 89.99532 38454 ft 427 kts 302°
2026-05-04 05:54 38.00416 89.75013 38477 ft 428 kts 302°
2026-05-04 05:55 38.03837 89.68865 38422 ft 427 kts 302°
2026-05-04 05:55 38.07252 89.62710 38500 ft 427 kts 302°
2026-05-04 05:56 38.10669 89.56551 38445 ft 428 kts 302°
2026-05-04 05:56 38.14098 89.50349 38451 ft 428 kts 302°
2026-05-04 05:57 38.17488 89.44206 38458 ft 428 kts 302°
2026-05-04 05:57 38.20893 89.38026 38489 ft 427 kts 302°
2026-05-04 05:58 38.24305 89.31826 38498 ft 427 kts 301°
2026-05-04 05:58 38.27703 89.25635 38489 ft 428 kts 301°
2026-05-04 05:59 38.31093 89.19450 38466 ft 429 kts 301°
2026-05-04 05:59 38.34510 89.13202 38446 ft 430 kts 301°
2026-05-04 06:00 38.37906 89.06980 38451 ft 430 kts 301°
2026-05-04 06:00 38.41327 89.00702 38453 ft 430 kts 301°
2026-05-04 06:01 38.44736 88.94430 38409 ft 431 kts 301°
2026-05-04 06:03 38.58394 88.69285 38370 ft 434 kts 303°
2026-05-04 06:05 38.74507 88.41299 38267 ft 436 kts 302°
2026-05-04 06:06 38.78079 88.35055 38199 ft 437 kts 302°
2026-05-04 06:06 38.81675 88.28761 38115 ft 439 kts 302°
2026-05-04 06:07 38.85260 88.22472 38129 ft 439 kts 302°
2026-05-04 06:07 38.88877 88.16116 37985 ft 442 kts 302°
2026-05-04 06:08 38.92485 88.09763 37965 ft 442 kts 302°
2026-05-04 06:08 38.96110 88.03370 37912 ft 443 kts 302°
2026-05-04 06:09 38.99740 87.96950 37898 ft 443 kts 302°
2026-05-04 06:11 39.14202 87.71258 37865 ft 442 kts 302°
2026-05-04 06:13 39.28553 87.45554 37881 ft 442 kts 302°
2026-05-04 06:14 39.41054 87.22996 37899 ft 442 kts 301°
2026-05-04 06:15 39.44616 87.16537 37912 ft 442 kts 301°
2026-05-04 06:15 39.48170 87.10081 37911 ft 443 kts 301°
2026-05-04 06:16 39.51731 87.03603 37907 ft 443 kts 301°
2026-05-04 06:16 39.55289 86.97116 37910 ft 444 kts 301°
2026-05-04 06:17 39.58863 86.90579 37902 ft 444 kts 301°
2026-05-04 06:17 39.62418 86.84070 37896 ft 444 kts 301°
2026-05-04 06:18 39.65999 86.77500 37896 ft 444 kts 301°
2026-05-04 06:20 39.80189 86.51324 37898 ft 444 kts 301°
2026-05-04 06:21 39.89062 86.34848 37915 ft 445 kts 300°
2026-05-04 06:22 39.92616 86.28223 37919 ft 446 kts 300°
2026-05-04 06:25 40.17418 85.81661 37896 ft 448 kts 300°
2026-05-04 06:26 40.20971 85.74947 37904 ft 448 kts 300°
2026-05-04 06:26 40.24508 85.68250 37889 ft 448 kts 299°
2026-05-04 06:27 40.33329 85.51485 37903 ft 448 kts 299°
2026-05-04 06:28 40.36852 85.44761 37907 ft 448 kts 299°
2026-05-04 06:28 40.40372 85.38030 37907 ft 449 kts 300°
2026-05-04 06:29 40.43895 85.31280 37918 ft 449 kts 299°
2026-05-04 06:29 40.47432 85.24486 37912 ft 450 kts 298°
2026-05-04 06:30 40.50929 85.17756 37907 ft 450 kts 299°
2026-05-04 06:30 40.54469 85.10928 37911 ft 451 kts 299°
2026-05-04 06:31 40.57983 85.04137 37918 ft 451 kts 298°
2026-05-04 06:31 40.61508 84.97308 37922 ft 452 kts 298°
2026-05-04 06:33 40.75602 84.69853 37912 ft 454 kts 298°
2026-05-04 06:34 40.79113 84.62978 37905 ft 454 kts 298°
2026-05-04 06:34 40.82651 84.56030 37899 ft 455 kts 299°
2026-05-04 06:36 40.96753 84.28206 37904 ft 457 kts 298°
2026-05-04 06:37 41.00272 84.21223 37920 ft 458 kts 298°
2026-05-04 06:37 41.03801 84.14204 37930 ft 458 kts 298°
2026-05-04 06:38 41.07308 84.07217 37930 ft 459 kts 299°
2026-05-04 06:40 41.21410 83.78947 37933 ft 460 kts 299°
2026-05-04 06:40 41.24927 83.71855 37934 ft 460 kts 299°
2026-05-04 06:41 41.28442 83.64752 37933 ft 461 kts 299°
2026-05-04 06:41 41.31946 83.57656 37934 ft 461 kts 299°
2026-05-04 06:42 41.35437 83.50570 37934 ft 461 kts 299°
2026-05-04 06:44 41.49463 83.21928 37952 ft 462 kts 298°
2026-05-04 06:44 41.52949 83.14767 37797 ft 462 kts 298°
2026-05-04 06:45 41.54702 83.11159 38019 ft 459 kts 298°
2026-05-04 06:45 41.56437 83.07585 37933 ft 462 kts 298°
2026-05-04 06:45 41.59909 83.00417 37980 ft 462 kts 298°
2026-05-04 06:46 41.63377 82.93241 37981 ft 462 kts 298°
2026-05-04 06:46 41.66890 82.85980 37987 ft 463 kts 301°
2026-05-04 06:48 41.84481 82.66368 38040 ft 474 kts 317°
2026-05-04 06:48 41.87074 82.63584 38027 ft 475 kts 317°
2026-05-04 06:50 42.07618 82.41428 38105 ft 474 kts 317°
2026-05-04 06:51 42.12758 82.35857 38100 ft 474 kts 317°
2026-05-04 06:51 42.17882 82.30288 38116 ft 473 kts 317°
2026-05-04 06:52 42.22981 82.24738 38145 ft 472 kts 317°
2026-05-04 06:52 42.28107 82.19143 38157 ft 472 kts 317°
2026-05-04 06:53 42.33211 82.13564 38174 ft 472 kts 317°
2026-05-04 06:53 42.38290 82.08003 38197 ft 472 kts 317°
2026-05-04 06:54 42.43359 82.02437 38200 ft 472 kts 317°
2026-05-04 06:54 42.48462 81.96825 38223 ft 471 kts 317°
2026-05-04 06:55 42.53526 81.91244 38237 ft 471 kts 317°
2026-05-04 06:55 42.58626 81.85609 38244 ft 471 kts 317°
2026-05-04 06:57 42.78506 81.62497 38209 ft 472 kts 314°
2026-05-04 06:58 42.83362 81.56534 38190 ft 472 kts 314°
2026-05-04 06:58 42.88244 81.50527 38170 ft 472 kts 315°
2026-05-04 06:59 42.93104 81.44532 38152 ft 472 kts 314°
2026-05-04 06:59 42.97952 81.38540 38135 ft 471 kts 314°
2026-05-04 07:01 43.17365 81.14408 38151 ft 470 kts 314°
2026-05-04 07:02 43.22166 81.08408 38136 ft 470 kts 314°
2026-05-04 07:02 43.26995 81.02360 38143 ft 470 kts 314°
2026-05-04 07:03 43.31806 80.96320 38135 ft 469 kts 313°
2026-05-04 07:03 43.36607 80.90278 38116 ft 469 kts 313°
2026-05-04 07:04 43.41427 80.84197 38092 ft 469 kts 314°
2026-05-04 07:04 43.46203 80.78160 38111 ft 468 kts 314°
2026-05-04 07:05 43.50952 80.72088 38097 ft 466 kts 311°
2026-05-04 07:05 43.55577 80.65794 38084 ft 466 kts 312°
2026-05-04 07:06 43.62497 80.56387 38060 ft 466 kts 311°
2026-05-04 07:07 43.67098 80.50112 38048 ft 466 kts 311°
2026-05-04 07:09 43.85455 80.24936 38035 ft 464 kts 311°
2026-05-04 07:09 43.90029 80.18628 38001 ft 465 kts 311°
2026-05-04 07:10 43.94578 80.12337 38025 ft 464 kts 311°
2026-05-04 07:12 44.12763 79.87048 38038 ft 461 kts 311°
2026-05-04 07:12 44.17287 79.80712 38056 ft 460 kts 311°
2026-05-04 07:13 44.21776 79.74411 38086 ft 459 kts 311°
2026-05-04 07:13 44.26274 79.68082 38070 ft 459 kts 311°
2026-05-04 07:14 44.37436 79.52319 38163 ft 457 kts 311°
2026-05-04 07:15 44.41905 79.45980 38141 ft 458 kts 310°
2026-05-04 07:15 44.46365 79.39639 38134 ft 458 kts 311°
2026-05-04 07:16 44.50840 79.33263 38149 ft 458 kts 310°
2026-05-04 07:16 44.55284 79.26920 38178 ft 458 kts 310°
2026-05-04 07:17 44.59743 79.20543 38175 ft 458 kts 310°
2026-05-04 07:17 44.64203 79.14147 38174 ft 458 kts 310°
2026-05-04 07:18 44.68645 79.07764 38144 ft 459 kts 310°
2026-05-04 07:18 44.73096 79.01354 38168 ft 458 kts 310°
2026-05-04 07:19 44.77562 78.94906 38158 ft 459 kts 310°
2026-05-04 07:19 44.82013 78.88466 38175 ft 459 kts 310°
2026-05-04 07:20 44.86428 78.81985 38178 ft 457 kts 307°
2026-05-04 07:20 44.90590 78.75286 38160 ft 457 kts 307°
2026-05-04 07:22 45.07381 78.48245 38064 ft 458 kts 308°
2026-05-04 07:23 45.11605 78.41499 38054 ft 459 kts 310°
2026-05-04 07:23 45.16015 78.34956 38064 ft 459 kts 309°
2026-05-04 07:24 45.20398 78.28407 38062 ft 458 kts 309°
2026-05-04 07:24 45.24756 78.21879 38063 ft 458 kts 309°
2026-05-04 07:26 45.42194 77.95600 38052 ft 458 kts 309°
2026-05-04 07:27 45.46551 77.88996 38064 ft 457 kts 309°
2026-05-04 07:27 45.50890 77.82402 38055 ft 457 kts 309°
2026-05-04 07:28 45.55229 77.75793 38053 ft 457 kts 309°
2026-05-04 07:28 45.59567 77.69167 38056 ft 456 kts 310°
2026-05-04 07:29 45.63860 77.62595 38061 ft 456 kts 310°
2026-05-04 07:29 45.68203 77.55930 38062 ft 456 kts 310°
2026-05-04 07:30 45.72492 77.49332 38068 ft 456 kts 310°
2026-05-04 07:30 45.76809 77.42675 38066 ft 456 kts 310°
2026-05-04 07:31 45.81110 77.36027 38071 ft 456 kts 310°
2026-05-04 07:33 45.98237 77.09390 38091 ft 455 kts 309°
2026-05-04 07:33 46.02522 77.02686 38098 ft 455 kts 309°
2026-05-04 07:34 46.06782 76.96001 38092 ft 454 kts 309°
2026-05-04 07:34 46.11037 76.89312 38087 ft 454 kts 309°
2026-05-04 07:35 46.15310 76.82577 38097 ft 454 kts 309°
2026-05-04 07:35 46.19540 76.75893 38104 ft 453 kts 309°
2026-05-04 07:36 46.23788 76.69164 38093 ft 453 kts 309°
2026-05-04 07:38 46.40669 76.42241 38104 ft 452 kts 309°
2026-05-04 07:38 46.44870 76.35494 38104 ft 451 kts 309°
2026-05-04 07:39 46.49065 76.28739 38117 ft 451 kts 309°
2026-05-04 07:39 46.53254 76.21982 38119 ft 451 kts 309°
2026-05-04 07:40 46.57413 76.15250 38109 ft 451 kts 309°
2026-05-04 07:40 46.61592 76.08472 38113 ft 452 kts 309°
2026-05-04 07:41 46.65782 76.01659 38122 ft 451 kts 309°
2026-05-04 07:41 46.69970 75.94833 38120 ft 451 kts 309°
2026-05-04 07:42 46.74131 75.88032 38124 ft 451 kts 309°
2026-05-04 07:42 46.78310 75.81186 38120 ft 451 kts 309°
2026-05-04 07:43 46.82469 75.74354 38129 ft 451 kts 309°
2026-05-04 07:43 46.86604 75.67546 38127 ft 451 kts 309°
2026-05-04 07:44 46.90774 75.60661 38132 ft 451 kts 309°
2026-05-04 07:44 46.94922 75.53796 38133 ft 451 kts 309°
2026-05-04 07:45 46.99076 75.46903 38136 ft 451 kts 309°
2026-05-04 07:45 47.03218 75.40013 38136 ft 452 kts 309°
2026-05-04 07:46 47.07350 75.33121 38140 ft 451 kts 308°
2026-05-04 07:46 47.11470 75.26232 38139 ft 451 kts 309°
2026-05-04 07:47 47.15614 75.19285 38146 ft 451 kts 309°
2026-05-04 07:49 47.32071 74.91522 38145 ft 451 kts 309°
2026-05-04 07:49 47.36155 74.84588 38148 ft 451 kts 309°
2026-05-04 07:50 47.40262 74.77595 38148 ft 450 kts 309°
2026-05-04 07:50 47.44333 74.70647 38151 ft 450 kts 309°
2026-05-04 07:51 47.48402 74.63687 38151 ft 450 kts 309°
2026-05-04 07:51 47.52471 74.56705 38151 ft 450 kts 309°
2026-05-04 07:52 47.56559 74.49672 38147 ft 450 kts 309°
2026-05-04 07:52 47.60640 74.42635 38149 ft 450 kts 309°
2026-05-04 07:54 47.76881 74.14442 38162 ft 451 kts 308°
2026-05-04 07:55 47.80946 74.07337 38161 ft 451 kts 308°
2026-05-04 07:55 47.84987 74.00260 38162 ft 451 kts 308°
2026-05-04 07:56 47.89029 73.93160 38164 ft 451 kts 308°
2026-05-04 07:56 47.93066 73.86050 38166 ft 451 kts 308°
2026-05-04 07:57 47.97096 73.78933 38171 ft 450 kts 308°
2026-05-04 07:57 48.01123 73.71802 38162 ft 450 kts 308°
2026-05-04 07:58 48.05153 73.64645 38162 ft 450 kts 308°
2026-05-04 07:58 48.09162 73.57510 38162 ft 449 kts 309°
2026-05-04 07:59 48.12925 73.50060 38178 ft 447 kts 306°
2026-05-04 07:59 48.16611 73.42580 38175 ft 447 kts 305°
2026-05-04 08:00 48.20278 73.35111 38169 ft 447 kts 305°
2026-05-04 08:02 48.34889 73.05122 38178 ft 446 kts 305°
2026-05-04 08:02 48.38541 72.97573 38177 ft 445 kts 305°
2026-05-04 08:03 48.42173 72.90045 38181 ft 445 kts 305°
2026-05-04 08:03 48.45796 72.82518 38177 ft 444 kts 305°
2026-05-04 08:04 48.49402 72.75000 38169 ft 444 kts 305°
2026-05-04 08:04 48.53014 72.67449 38180 ft 444 kts 305°
2026-05-04 08:05 48.56618 72.59899 38179 ft 443 kts 305°
2026-05-04 08:05 48.60206 72.52357 38170 ft 443 kts 305°
2026-05-04 08:06 48.63773 72.44840 38175 ft 442 kts 306°
2026-05-04 08:06 48.67335 72.37313 38177 ft 442 kts 306°
2026-05-04 08:08 48.81558 72.07041 38176 ft 440 kts 305°
2026-05-04 08:11 48.97352 71.73025 38168 ft 438 kts 305°
2026-05-04 08:11 49.02580 71.61671 38179 ft 438 kts 305°
2026-05-04 08:12 49.06057 71.54088 38177 ft 438 kts 305°
2026-05-04 08:12 49.09534 71.46489 38166 ft 437 kts 305°
2026-05-04 08:13 49.12996 71.38902 38180 ft 437 kts 305°
2026-05-04 08:13 49.16466 71.31270 38182 ft 437 kts 304°
2026-05-04 08:14 49.19910 71.23679 38179 ft 437 kts 304°
2026-05-04 08:16 49.33693 70.93076 38156 ft 438 kts 304°
2026-05-04 08:16 49.37124 70.85402 38172 ft 438 kts 304°
2026-05-04 08:17 49.40551 70.77715 38169 ft 438 kts 304°
2026-05-04 08:17 49.43984 70.69991 38161 ft 437 kts 304°
2026-05-04 08:19 49.57620 70.39097 38152 ft 436 kts 303°
2026-05-04 08:20 49.60994 70.31398 38166 ft 436 kts 303°
2026-05-04 08:20 49.64360 70.23691 38169 ft 436 kts 303°
2026-05-04 08:21 49.67741 70.15932 38159 ft 436 kts 303°
2026-05-04 08:21 49.71677 70.06864 38147 ft 436 kts 303°
2026-05-04 08:22 49.74479 70.00397 38141 ft 436 kts 303°
2026-05-04 08:24 49.87878 69.69228 38150 ft 436 kts 303°
2026-05-04 08:24 49.91239 69.61351 38146 ft 436 kts 303°
2026-05-04 08:25 49.94569 69.53526 38149 ft 436 kts 303°
2026-05-04 08:25 49.97903 69.45667 38152 ft 436 kts 303°
2026-05-04 08:27 50.11722 69.12841 38166 ft 437 kts 302°
2026-05-04 08:28 50.14480 69.06236 38148 ft 438 kts 302°
2026-05-04 08:28 50.17783 68.98312 38156 ft 438 kts 302°
2026-05-04 08:29 50.21093 68.90343 38161 ft 438 kts 302°
2026-05-04 08:31 50.34233 68.58473 38138 ft 437 kts 302°
2026-05-04 08:33 50.47252 68.26508 38137 ft 435 kts 301°
2026-05-04 08:35 50.60444 68.00864 38139 ft 436 kts 313°
2026-05-04 08:35 50.63324 67.96326 38135 ft 436 kts 313°
2026-05-04 08:35 50.67568 67.89623 38135 ft 436 kts 313°
2026-05-04 08:37 50.82478 67.65911 38129 ft 435 kts 313°
2026-05-04 08:38 50.85999 67.60278 38126 ft 435 kts 313°
2026-05-04 08:38 50.90264 67.53436 38123 ft 435 kts 313°
2026-05-04 08:40 51.07891 67.24963 38108 ft 435 kts 312°
2026-05-04 08:41 51.12133 67.18061 38103 ft 436 kts 311°
2026-05-04 08:41 51.15644 67.12334 38107 ft 436 kts 311°
2026-05-04 08:42 51.19841 67.05469 38104 ft 436 kts 311°
2026-05-04 08:42 51.24783 66.97366 38097 ft 436 kts 311°
2026-05-04 08:43 51.28984 66.90454 38094 ft 435 kts 311°
2026-05-04 08:43 51.32487 66.84674 38087 ft 435 kts 311°
2026-05-04 08:44 51.36669 66.77761 38089 ft 435 kts 311°
2026-05-04 08:46 51.54074 66.48768 38090 ft 434 kts 311°
2026-05-04 08:46 51.58231 66.41795 38081 ft 434 kts 311°
2026-05-04 08:47 51.62389 66.34800 38074 ft 434 kts 310°
2026-05-04 08:47 51.66550 66.27777 38079 ft 434 kts 310°
2026-05-04 08:48 51.70721 66.20718 38077 ft 435 kts 310°
2026-05-04 08:48 51.74875 66.13666 38077 ft 435 kts 310°
2026-05-04 08:49 51.79010 66.06629 38071 ft 434 kts 310°
2026-05-04 08:50 51.93511 65.81790 38064 ft 435 kts 310°
2026-05-04 08:51 51.97646 65.74661 38053 ft 435 kts 309°
2026-05-04 08:51 52.01753 65.67559 38045 ft 435 kts 309°
2026-05-04 08:52 52.05874 65.60413 38063 ft 435 kts 309°
2026-05-04 08:52 52.10003 65.53235 38047 ft 436 kts 309°
2026-05-04 08:54 52.25806 65.25556 38037 ft 436 kts 309°
2026-05-04 08:55 52.30587 65.17121 38048 ft 437 kts 309°
2026-05-04 08:55 52.34680 65.09879 38041 ft 437 kts 308°
2026-05-04 09:01 52.77646 64.32523 38022 ft 437 kts 307°
2026-05-04 09:01 52.81700 64.25097 38013 ft 438 kts 307°
2026-05-04 09:02 52.85757 64.17645 38019 ft 438 kts 307°
2026-05-04 09:02 52.89823 64.10153 38016 ft 438 kts 307°
2026-05-04 09:03 52.93856 64.02698 38021 ft 438 kts 307°
2026-05-04 09:03 52.97937 63.95134 38014 ft 438 kts 307°
2026-05-04 09:04 53.01969 63.87633 38010 ft 438 kts 307°
2026-05-04 09:04 53.06005 63.80107 38007 ft 438 kts 307°
2026-05-04 09:05 53.09377 63.73799 37986 ft 438 kts 307°
2026-05-04 09:05 53.14088 63.64961 37980 ft 438 kts 306°
2026-05-04 09:06 53.17374 63.58553 37965 ft 432 kts 299°
2026-05-04 09:07 53.21877 63.23799 37978 ft 421 kts 277°
2026-05-04 09:08 53.22341 63.18973 37963 ft 422 kts 276°
2026-05-04 09:08 53.23112 63.10931 37956 ft 422 kts 276°
2026-05-04 09:09 53.24181 62.99662 37962 ft 423 kts 276°
2026-05-04 09:09 53.25093 62.89955 37939 ft 424 kts 276°
2026-05-04 09:10 53.25992 62.80303 37958 ft 424 kts 276°
2026-05-04 09:10 53.26891 62.70560 37929 ft 424 kts 276°
2026-05-04 09:11 53.27776 62.60886 37914 ft 424 kts 276°
2026-05-04 09:11 53.28653 62.51190 37926 ft 425 kts 276°
2026-05-04 09:12 53.29533 62.41456 37938 ft 425 kts 276°
2026-05-04 09:14 53.32981 62.02425 37909 ft 426 kts 275°
2026-05-04 09:14 53.33823 61.92645 37907 ft 426 kts 275°
2026-05-04 09:15 53.34656 61.82879 37940 ft 426 kts 275°
2026-05-04 09:15 53.35484 61.73091 37927 ft 426 kts 275°
2026-05-04 09:17 53.39107 61.28976 37895 ft 427 kts 275°
2026-05-04 09:18 53.39890 61.19178 37875 ft 427 kts 275°
2026-05-04 09:18 53.40553 61.14294 37902 ft 433 kts 287°
2026-05-04 09:18 53.41858 61.09736 37911 ft 435 kts 291°
2026-05-04 09:19 53.44487 61.00631 37918 ft 435 kts 291°
2026-05-04 09:19 53.47073 60.91591 37916 ft 436 kts 291°
2026-05-04 09:20 53.49710 60.82326 37900 ft 436 kts 291°
2026-05-04 09:20 53.52291 60.73223 37901 ft 437 kts 291°
2026-05-04 09:21 53.54888 60.64029 37903 ft 436 kts 291°
2026-05-04 09:21 53.57475 60.54834 37897 ft 436 kts 291°
2026-05-04 09:22 53.60066 60.45588 37902 ft 437 kts 291°
2026-05-04 09:22 53.62638 60.36373 37888 ft 437 kts 291°
2026-05-04 09:23 53.65217 60.27094 37920 ft 438 kts 290°
2026-05-04 09:23 53.67795 60.17789 37892 ft 439 kts 290°
2026-05-04 09:25 53.78016 59.80475 37879 ft 439 kts 290°
2026-05-04 09:26 53.80562 59.71086 37853 ft 440 kts 290°
2026-05-04 09:26 53.83093 59.61711 37863 ft 440 kts 290°
2026-05-04 09:27 53.85623 59.52305 37883 ft 440 kts 290°
2026-05-04 09:27 53.88139 59.42914 37883 ft 441 kts 290°
2026-05-04 09:28 53.90211 59.33270 37893 ft 434 kts 280°
2026-05-04 09:28 53.91738 59.23365 37889 ft 436 kts 281°
2026-05-04 09:29 53.93264 59.13402 37886 ft 436 kts 280°
2026-05-04 09:29 53.94771 59.03495 37895 ft 437 kts 281°
2026-05-04 09:30 53.96277 58.93541 37902 ft 437 kts 280°
2026-05-04 09:30 53.97781 58.83530 37898 ft 438 kts 280°
2026-05-04 09:31 53.99267 58.73572 37888 ft 438 kts 281°
2026-05-04 09:31 54.00753 58.63566 37888 ft 438 kts 280°
2026-05-04 09:32 54.02225 58.53577 37903 ft 438 kts 281°
2026-05-04 09:34 54.09935 58.14115 37911 ft 443 kts 285°
2026-05-04 09:34 54.11980 58.04210 37909 ft 443 kts 285°
2026-05-04 09:35 54.14004 57.94349 37900 ft 442 kts 285°
2026-05-04 09:35 54.16019 57.84490 37895 ft 442 kts 285°
2026-05-04 09:37 54.24010 57.44872 37912 ft 443 kts 285°
2026-05-04 09:38 54.25990 57.34931 37916 ft 444 kts 284°
2026-05-04 09:38 54.27964 57.24965 37918 ft 444 kts 285°
2026-05-04 09:39 54.29927 57.15015 37927 ft 445 kts 285°
2026-05-04 09:39 54.31894 57.04982 37928 ft 446 kts 285°
2026-05-04 09:40 54.33858 56.94910 37933 ft 447 kts 285°
2026-05-04 09:40 54.35810 56.84847 37938 ft 448 kts 285°
2026-05-04 09:42 54.43590 56.44220 37932 ft 451 kts 285°
2026-05-04 09:43 54.45519 56.34011 37936 ft 452 kts 284°
2026-05-04 09:43 54.47447 56.23741 37936 ft 453 kts 285°
2026-05-04 09:44 54.49363 56.13490 37941 ft 453 kts 285°
2026-05-04 09:46 54.56941 55.72023 37942 ft 456 kts 285°
2026-05-04 09:46 54.58799 55.61578 37940 ft 457 kts 285°
2026-05-04 09:47 54.60644 55.51143 37930 ft 458 kts 285°
2026-05-04 09:49 54.67862 55.08983 37923 ft 461 kts 284°
2026-05-04 09:51 54.73867 54.71658 37940 ft 462 kts 284°
2026-05-04 09:51 54.75561 54.60971 37938 ft 463 kts 284°
2026-05-04 09:52 54.77252 54.50235 37933 ft 464 kts 284°
2026-05-04 09:52 54.78933 54.39492 37933 ft 465 kts 284°
2026-05-04 09:53 54.80610 54.28703 37941 ft 465 kts 283°
2026-05-04 09:53 54.82279 54.17905 37929 ft 466 kts 283°
2026-05-04 09:54 54.83956 54.07081 37928 ft 467 kts 283°
2026-05-04 09:54 54.85632 53.96195 37932 ft 467 kts 283°
2026-05-04 09:55 54.87289 53.85350 37926 ft 468 kts 283°
2026-05-04 09:55 54.88937 53.74493 37931 ft 467 kts 283°
2026-05-04 09:56 54.90583 53.63571 37928 ft 468 kts 284°
2026-05-04 09:56 54.92228 53.52650 37922 ft 468 kts 284°
2026-05-04 09:57 54.93853 53.41785 37928 ft 468 kts 284°
2026-05-04 09:57 54.95484 53.30810 37928 ft 469 kts 283°
2026-05-04 09:58 54.97094 53.19857 37933 ft 469 kts 283°
2026-05-04 09:58 54.98687 53.08925 37932 ft 469 kts 283°
2026-05-04 10:00 55.04973 52.65055 37936 ft 469 kts 283°
2026-05-04 10:04 55.15612 51.87914 37948 ft 467 kts 283°
2026-05-04 10:04 55.17082 51.76944 37953 ft 468 kts 283°
2026-05-04 10:05 55.18557 51.65853 37930 ft 469 kts 283°
2026-05-04 10:05 55.20012 51.54818 37951 ft 469 kts 283°
2026-05-04 10:06 55.21470 51.43681 37935 ft 469 kts 283°
2026-05-04 10:06 55.22908 51.32607 37951 ft 469 kts 282°
2026-05-04 10:08 55.27813 50.93670 37939 ft 469 kts 282°
2026-05-04 10:08 55.29112 50.82559 37949 ft 468 kts 282°
2026-05-04 10:09 55.30412 50.71349 37947 ft 469 kts 282°
2026-05-04 10:09 55.31691 50.60225 37926 ft 470 kts 282°
2026-05-04 10:10 55.32973 50.48986 37926 ft 469 kts 282°
2026-05-04 10:10 55.34232 50.37843 37926 ft 468 kts 282°
2026-05-04 10:11 55.35496 50.26553 37924 ft 469 kts 281°
2026-05-04 10:11 55.36740 50.15356 37922 ft 468 kts 281°
2026-05-04 10:12 55.37964 50.04233 37927 ft 467 kts 281°
2026-05-04 10:12 55.38964 49.92966 37924 ft 468 kts 275°
2026-05-04 10:13 55.39534 49.81524 37916 ft 468 kts 276°
2026-05-04 10:13 55.40093 49.70200 37922 ft 468 kts 276°
2026-05-04 10:14 55.40644 49.58829 37919 ft 467 kts 276°
2026-05-04 10:16 55.42732 49.13506 37910 ft 466 kts 275°
2026-05-04 10:16 55.43227 49.02152 37901 ft 466 kts 275°
2026-05-04 10:17 55.43711 48.90821 37910 ft 465 kts 275°
2026-05-04 10:19 55.45545 48.45457 37913 ft 464 kts 275°
2026-05-04 10:19 55.45977 48.34127 37919 ft 464 kts 274°
2026-05-04 10:20 55.46399 48.22802 37912 ft 464 kts 274°
2026-05-04 10:20 55.46808 48.11532 37907 ft 463 kts 275°
2026-05-04 10:21 55.47210 48.00198 37902 ft 464 kts 275°
2026-05-04 10:21 55.47598 47.88916 38006 ft 464 kts 275°
2026-05-04 10:22 55.48161 47.72005 37916 ft 460 kts 275°
2026-05-04 10:23 55.48524 47.60721 37934 ft 460 kts 275°
2026-05-04 10:25 55.49870 47.15611 37922 ft 461 kts 274°
2026-05-04 10:25 55.50183 47.04323 37914 ft 460 kts 274°
2026-05-04 10:26 55.50486 46.93084 37912 ft 460 kts 274°
2026-05-04 10:26 55.50775 46.81927 37924 ft 460 kts 274°
2026-05-04 10:27 55.51057 46.70719 37922 ft 460 kts 274°
2026-05-04 10:27 55.51329 46.59421 37911 ft 460 kts 274°
2026-05-04 10:28 55.51589 46.48233 38037 ft 461 kts 274°
2026-05-04 10:28 55.51746 46.42579 37881 ft 461 kts 276°
2026-05-04 10:28 55.51976 46.36977 37918 ft 455 kts 276°
2026-05-04 10:29 55.52412 46.25810 37905 ft 458 kts 275°
2026-05-04 10:29 55.52837 46.14590 37929 ft 458 kts 275°
2026-05-04 10:30 55.53249 46.03483 37919 ft 457 kts 275°
2026-05-04 10:30 55.53653 45.92314 37910 ft 457 kts 275°
2026-05-04 10:31 55.54048 45.81086 37911 ft 458 kts 275°
2026-05-04 10:32 55.55342 45.42040 37899 ft 456 kts 275°
2026-05-04 10:33 55.55690 45.30876 37907 ft 457 kts 275°
2026-05-04 10:33 55.56027 45.19715 37912 ft 457 kts 275°
2026-05-04 10:34 55.56353 45.08538 37751 ft 457 kts 275°
2026-05-04 10:34 55.56511 45.03016 38049 ft 454 kts 275°
2026-05-04 10:34 55.56669 44.97436 37978 ft 457 kts 275°
2026-05-04 10:35 55.56823 44.91865 37775 ft 458 kts 275°
2026-05-04 10:35 55.56975 44.86299 37964 ft 454 kts 275°
2026-05-04 10:35 55.57273 44.75167 37906 ft 458 kts 275°
2026-05-04 10:36 55.57563 44.63934 37908 ft 459 kts 275°
2026-05-04 10:36 55.57843 44.52712 37911 ft 458 kts 275°
2026-05-04 10:37 55.58113 44.41486 37907 ft 457 kts 275°
2026-05-04 10:37 55.58370 44.30342 37927 ft 457 kts 274°
2026-05-04 10:39 55.59197 43.91128 37912 ft 458 kts 274°
2026-05-04 10:40 55.59411 43.79912 37908 ft 457 kts 274°
2026-05-04 10:40 55.59481 43.68743 37916 ft 458 kts 272°
2026-05-04 10:41 55.59515 43.57504 37914 ft 458 kts 273°
2026-05-04 10:41 55.59539 43.46323 37915 ft 458 kts 273°
2026-05-04 10:42 55.59553 43.35077 37907 ft 458 kts 273°
2026-05-04 10:42 55.59556 43.23850 37914 ft 459 kts 272°
2026-05-04 10:43 55.59549 43.12579 37912 ft 459 kts 272°
2026-05-04 10:45 55.59418 42.67664 37906 ft 457 kts 272°
2026-05-04 10:45 55.59361 42.56446 37908 ft 458 kts 272°
2026-05-04 10:46 55.59293 42.45227 37909 ft 458 kts 272°
2026-05-04 10:46 55.59213 42.34010 37907 ft 458 kts 271°
2026-05-04 10:47 55.59125 42.22791 37914 ft 459 kts 271°
2026-05-04 10:47 55.59025 42.11606 37913 ft 459 kts 271°
2026-05-04 10:49 55.58524 41.66657 37904 ft 458 kts 271°
2026-05-04 10:50 55.58371 41.55450 37904 ft 458 kts 271°
2026-05-04 10:52 55.57656 41.10659 37909 ft 458 kts 271°
2026-05-04 10:52 55.57450 40.99475 37902 ft 458 kts 271°
2026-05-04 10:54 55.56519 40.54714 37908 ft 457 kts 271°
2026-05-04 10:56 55.55305 40.09998 37912 ft 458 kts 270°
2026-05-04 10:57 55.55056 39.98746 37912 ft 455 kts 276°
2026-05-04 10:57 55.55659 39.87672 37915 ft 455 kts 278°
2026-05-04 10:58 55.56249 39.76656 37915 ft 454 kts 278°
2026-05-04 10:58 55.56828 39.65614 37916 ft 453 kts 278°
2026-05-04 10:59 55.57401 39.54489 37910 ft 454 kts 278°
2026-05-04 10:59 55.58085 39.43441 37916 ft 454 kts 279°
2026-05-04 11:00 55.58796 39.32387 37916 ft 454 kts 278°
2026-05-04 11:02 55.61533 38.88151 37911 ft 453 kts 278°
2026-05-04 11:05 55.64961 38.05101 37894 ft 455 kts 269°
2026-05-04 11:06 55.64323 37.99592 37909 ft 460 kts 253°
2026-05-04 11:06 55.62801 37.94567 37930 ft 468 kts 237°
2026-05-04 11:06 55.60546 37.90471 37919 ft 476 kts 220°
2026-05-04 11:06 55.57644 37.87533 37915 ft 483 kts 204°
2026-05-04 11:08 55.39459 38.06440 37920 ft 495 kts 115°
2026-05-04 11:10 55.20723 38.31950 37911 ft 498 kts 143°
2026-05-04 11:12 54.98374 38.60701 37918 ft 499 kts 143°
2026-05-04 11:12 54.92828 38.67771 37914 ft 497 kts 144°
2026-05-04 11:13 54.87253 38.74852 37924 ft 495 kts 144°
2026-05-04 11:13 54.81713 38.81864 37922 ft 495 kts 144°
2026-05-04 11:14 54.76173 38.88852 37925 ft 495 kts 143°
2026-05-04 11:16 54.53946 39.16647 37927 ft 494 kts 143°
2026-05-04 11:16 54.48402 39.23519 37941 ft 494 kts 143°
2026-05-04 11:17 54.42859 39.30368 37940 ft 494 kts 143°
2026-05-04 11:19 54.20573 39.57669 37959 ft 493 kts 143°
2026-05-04 11:19 54.15002 39.64437 37959 ft 493 kts 144°
2026-05-04 11:20 54.09433 39.71179 37953 ft 493 kts 144°
2026-05-04 11:20 54.03845 39.77921 37954 ft 492 kts 144°
2026-05-04 11:22 53.81543 40.04605 37966 ft 492 kts 144°
2026-05-04 11:23 53.75972 40.11216 37979 ft 491 kts 144°
2026-05-04 11:25 53.56400 40.34266 37976 ft 492 kts 144°
2026-05-04 11:25 53.50804 40.40808 37986 ft 491 kts 144°
2026-05-04 11:27 53.25633 40.69972 37995 ft 490 kts 146°
2026-05-04 11:28 53.20031 40.76405 38018 ft 490 kts 146°
2026-05-04 11:28 53.14386 40.82866 37996 ft 490 kts 146°
2026-05-04 11:29 53.08806 40.89232 38003 ft 491 kts 146°
2026-05-04 11:29 53.03173 40.95637 37994 ft 490 kts 146°
2026-05-04 11:33 52.63913 41.39719 38004 ft 488 kts 146°
2026-05-04 11:33 52.58324 41.45915 38006 ft 489 kts 146°
2026-05-04 11:34 52.52703 41.52128 38015 ft 489 kts 146°
2026-05-04 11:34 52.47070 41.58334 38019 ft 488 kts 146°
2026-05-04 11:35 52.41465 41.64489 38011 ft 487 kts 146°
2026-05-04 11:35 52.35846 41.70641 38013 ft 487 kts 147°
2026-05-04 11:36 52.30228 41.76773 38027 ft 487 kts 147°
2026-05-04 11:36 52.24608 41.82888 38029 ft 486 kts 147°
2026-05-04 11:37 52.19003 41.88968 38033 ft 486 kts 147°
2026-05-04 11:37 52.13371 41.95058 38030 ft 486 kts 147°
2026-05-04 11:38 52.07729 42.01141 38027 ft 487 kts 147°
2026-05-04 11:38 52.02107 42.07183 38027 ft 487 kts 147°
2026-05-04 11:39 51.96480 42.13211 38029 ft 486 kts 147°
2026-05-04 11:41 51.76784 42.34170 38037 ft 486 kts 147°
2026-05-04 11:41 51.71157 42.40117 38038 ft 485 kts 147°
2026-05-04 11:42 51.65508 42.46070 38033 ft 485 kts 147°
2026-05-04 11:42 51.59856 42.52006 38039 ft 485 kts 147°
2026-05-04 11:43 51.54235 42.57893 38041 ft 484 kts 147°
2026-05-04 11:43 51.48613 42.63764 38037 ft 484 kts 147°
2026-05-04 11:44 51.42978 42.69630 38029 ft 485 kts 148°
2026-05-04 11:44 51.37354 42.75468 38023 ft 484 kts 148°
2026-05-04 11:45 51.31723 42.81295 38037 ft 484 kts 148°
2026-05-04 11:45 51.26061 42.87136 38039 ft 483 kts 148°
2026-05-04 11:46 51.20454 42.92905 38032 ft 482 kts 148°
2026-05-04 11:46 51.14822 42.98682 38031 ft 477 kts 148°
2026-05-04 11:46 51.12101 43.01468 38025 ft 460 kts 148°
2026-05-04 11:47 51.09459 43.04169 38015 ft 443 kts 148°
2026-05-04 11:47 51.06918 43.06761 38014 ft 427 kts 148°
2026-05-04 11:47 51.04480 43.09248 38002 ft 412 kts 148°
2026-05-04 11:47 51.02125 43.11644 37996 ft 397 kts 149°
2026-05-04 11:48 50.99853 43.13954 38007 ft 382 kts 148°
2026-05-04 11:48 50.97643 43.16200 38008 ft 368 kts 149°
2026-05-04 11:48 50.95542 43.18331 38003 ft 354 kts 149°
2026-05-04 11:48 50.93543 43.20358 38002 ft 340 kts 149°